Observation data for Snyder SSW on 12/08/2019      Previous  Date       Current Mesonet Observations  Soil Data  Daily Summary Page  Observations in Plain Language
KWT1 080600Z 19008KT 09/03 A3006 RMK A01 T00870032  RH  069%=      5-min Rain = 0
KWT1 080601Z 20008KT 09/03 A3006 RMK A01 T00870033  RH  069%=      5-min Rain = 0
KWT1 080602Z 19008KT 09/03 A3006 RMK A01 T00870033  RH  069%=      5-min Rain = 0
KWT1 080603Z 19009KT 09/03 A3006 RMK A01 T00870033  RH  069%=      5-min Rain = 0
KWT1 080604Z 19008KT 09/03 A3006 RMK A01 T00870033  RH  069%=      5-min Rain = 0
KWT1 080605Z 19008KT 09/03 A3006 RMK A01 T00870033  RH  069%=      5-min Rain = 0
KWT1 080606Z 19009KT 09/03 A3006 RMK A01 T00870033  RH  069%=      5-min Rain = 0
KWT1 080607Z 19008KT 09/03 A3006 RMK A01 T00870033  RH  069%=      5-min Rain = 0
KWT1 080608Z 19009KT 09/03 A3005 RMK A01 T00870033  RH  069%=      5-min Rain = 0
KWT1 080609Z 19008KT 09/03 A3005 RMK A01 T00870033  RH  069%=      5-min Rain = 0
KWT1 080610Z 19009KT 09/03 A3005 RMK A01 T00860033  RH  069%=      5-min Rain = 0
KWT1 080611Z 19009KT 09/03 A3005 RMK A01 T00850032  RH  069%=      5-min Rain = 0
KWT1 080612Z 19009KT 09/03 A3005 RMK A01 T00850032  RH  069%=      5-min Rain = 0
KWT1 080613Z 19009KT 09/03 A3005 RMK A01 T00850032  RH  070%=      5-min Rain = 0
KWT1 080614Z 19009KT 08/03 A3005 RMK A01 T00840032  RH  070%=      5-min Rain = 0
KWT1 080615Z 19009KT 08/03 A3005 RMK A01 T00840032  RH  070%=      5-min Rain = 0
KWT1 080616Z 19009KT 08/03 A3004 RMK A01 T00830032  RH  070%=      5-min Rain = 0
KWT1 080617Z 19009KT 08/03 A3004 RMK A01 T00830032  RH  070%=      5-min Rain = 0
KWT1 080618Z 19009KT 08/03 A3004 RMK A01 T00830032  RH  070%=      5-min Rain = 0
KWT1 080619Z 19009KT 08/03 A3004 RMK A01 T00830032  RH  071%=      5-min Rain = 0
KWT1 080620Z 19009KT 08/03 A3004 RMK A01 T00830032  RH  071%=      5-min Rain = 0
KWT1 080621Z 20009KT 08/03 A3004 RMK A01 T00820032  RH  071%=      5-min Rain = 0
KWT1 080622Z 19009KT 08/03 A3004 RMK A01 T00820032  RH  071%=      5-min Rain = 0
KWT1 080623Z 19009KT 08/03 A3004 RMK A01 T00820032  RH  071%=      5-min Rain = 0
KWT1 080624Z 19009KT 08/03 A3004 RMK A01 T00810032  RH  071%=      5-min Rain = 0
KWT1 080625Z 19009KT 08/03 A3004 RMK A01 T00810032  RH  071%=      5-min Rain = 0
KWT1 080626Z 19009KT 08/03 A3003 RMK A01 T00810031  RH  071%=      5-min Rain = 0
KWT1 080627Z 19009KT 08/03 A3003 RMK A01 T00800031  RH  071%=      5-min Rain = 0
KWT1 080628Z 19010KT 08/03 A3003 RMK A01 T00800031  RH  071%=      5-min Rain = 0
KWT1 080629Z 19009KT 08/03 A3003 RMK A01 T00800032  RH  072%=      5-min Rain = 0
KWT1 080630Z 19009KT 08/03 A3003 RMK A01 T00790031  RH  072%=      5-min Rain = 0
KWT1 080631Z 19009KT 08/03 A3003 RMK A01 T00790031  RH  072%=      5-min Rain = 0
KWT1 080632Z 19009KT 08/03 A3003 RMK A01 T00790032  RH  072%=      5-min Rain = 0
KWT1 080633Z 20009KT 08/03 A3003 RMK A01 T00790031  RH  072%=      5-min Rain = 0
KWT1 080634Z 20010KT 08/03 A3003 RMK A01 T00790032  RH  072%=      5-min Rain = 0
KWT1 080635Z 20010KT 08/03 A3003 RMK A01 T00790032  RH  072%=      5-min Rain = 0
KWT1 080636Z 20010KT 08/03 A3003 RMK A01 T00790032  RH  072%=      5-min Rain = 0
KWT1 080637Z 20010KT 08/03 A3003 RMK A01 T00810033  RH  072%=      5-min Rain = 0
KWT1 080638Z 20009KT 08/03 A3003 RMK A01 T00810033  RH  072%=      5-min Rain = 0
KWT1 080639Z 20010KT 08/03 A3003 RMK A01 T00820033  RH  071%=      5-min Rain = 0
KWT1 080640Z 20010KT 08/03 A3003 RMK A01 T00830034  RH  071%=      5-min Rain = 0
KWT1 080641Z 20009KT 08/03 A3003 RMK A01 T00840034  RH  071%=      5-min Rain = 0
KWT1 080642Z 20010KT 09/03 A3003 RMK A01 T00850034  RH  071%=      5-min Rain = 0
KWT1 080643Z 20009KT 09/03 A3003 RMK A01 T00850034  RH  070%=      5-min Rain = 0
KWT1 080644Z 20010KT 09/03 A3003 RMK A01 T00850034  RH  070%=      5-min Rain = 0
KWT1 080645Z 20010KT 09/03 A3003 RMK A01 T00850034  RH  070%=      5-min Rain = 0
KWT1 080646Z 20010KT 09/03 A3003 RMK A01 T00850034  RH  070%=      5-min Rain = 0
KWT1 080647Z 21010KT 09/03 A3003 RMK A01 T00850034  RH  070%=      5-min Rain = 0
KWT1 080648Z 21010KT 09/03 A3003 RMK A01 T00850034  RH  070%=      5-min Rain = 0
KWT1 080649Z 20010KT 09/03 A3003 RMK A01 T00850034  RH  070%=      5-min Rain = 0
KWT1 080650Z 20011KT 09/03 A3003 RMK A01 T00860034  RH  070%=      5-min Rain = 0
KWT1 080651Z 20010KT 09/03 A3002 RMK A01 T00850034  RH  070%=      5-min Rain = 0
KWT1 080652Z 20011KT 09/03 A3002 RMK A01 T00850034  RH  070%=      5-min Rain = 0
KWT1 080653Z 20011KT 09/03 A3002 RMK A01 T00850034  RH  070%=      5-min Rain = 0
KWT1 080654Z 20011KT 09/03 A3002 RMK A01 T00860034  RH  070%=      5-min Rain = 0
KWT1 080655Z 20010KT 09/03 A3002 RMK A01 T00860034  RH  070%=      5-min Rain = 0
KWT1 080656Z 20010KT 09/03 A3002 RMK A01 T00860034  RH  070%=      5-min Rain = 0
KWT1 080657Z 20010KT 09/03 A3002 RMK A01 T00860034  RH  070%=      5-min Rain = 0
KWT1 080658Z 20010KT 09/03 A3002 RMK A01 T00860034  RH  070%=      5-min Rain = 0
KWT1 080659Z 20010KT 09/03 A3002 RMK A01 T00870034  RH  070%=      5-min Rain = 0
KWT1 080700Z 20010KT 09/03 A3002 RMK A01 T00870034  RH  070%=      5-min Rain = 0
KWT1 080701Z 20011KT 09/04 A3002 RMK A01 T00870035  RH  070%=      5-min Rain = 0
KWT1 080702Z 20011KT 09/03 A3002 RMK A01 T00860034  RH  070%=      5-min Rain = 0
KWT1 080703Z 20010KT 09/03 A3002 RMK A01 T00860034  RH  070%=      5-min Rain = 0
KWT1 080704Z 20010KT 09/03 A3002 RMK A01 T00860034  RH  070%=      5-min Rain = 0
KWT1 080705Z 20010KT 09/04 A3002 RMK A01 T00860035  RH  070%=      5-min Rain = 0
KWT1 080706Z 20010KT 09/04 A3002 RMK A01 T00860035  RH  070%=      5-min Rain = 0
KWT1 080707Z 20010KT 09/04 A3002 RMK A01 T00860035  RH  070%=      5-min Rain = 0
KWT1 080708Z 20010KT 09/03 A3002 RMK A01 T00860034  RH  070%=      5-min Rain = 0
KWT1 080709Z 20010KT 09/03 A3002 RMK A01 T00860034  RH  070%=      5-min Rain = 0
KWT1 080710Z 20010KT 09/04 A3002 RMK A01 T00860035  RH  070%=      5-min Rain = 0
KWT1 080711Z 20010KT 09/04 A3002 RMK A01 T00860035  RH  070%=      5-min Rain = 0
KWT1 080712Z 20010KT 09/04 A3002 RMK A01 T00860035  RH  070%=      5-min Rain = 0
KWT1 080713Z 20010KT 09/04 A3002 RMK A01 T00860035  RH  070%=      5-min Rain = 0
KWT1 080714Z 20010KT 09/04 A3002 RMK A01 T00860035  RH  070%=      5-min Rain = 0
KWT1 080715Z 20010KT 09/04 A3002 RMK A01 T00860035  RH  070%=      5-min Rain = 0
KWT1 080716Z 20010KT 09/04 A3002 RMK A01 T00860035  RH  070%=      5-min Rain = 0
KWT1 080717Z 20010KT 09/04 A3002 RMK A01 T00860035  RH  070%=      5-min Rain = 0
KWT1 080718Z 20010KT 09/04 A3002 RMK A01 T00860035  RH  070%=      5-min Rain = 0
KWT1 080719Z 20010KT 09/04 A3002 RMK A01 T00860035  RH  071%=      5-min Rain = 0
KWT1 080720Z 20010KT 09/04 A3002 RMK A01 T00850035  RH  071%=      5-min Rain = 0
KWT1 080721Z 20010KT 09/04 A3002 RMK A01 T00850035  RH  071%=      5-min Rain = 0
KWT1 080722Z 20009KT 09/04 A3002 RMK A01 T00850035  RH  071%=      5-min Rain = 0
KWT1 080723Z 20009KT 09/04 A3002 RMK A01 T00850035  RH  071%=      5-min Rain = 0
KWT1 080724Z 20010KT 09/04 A3002 RMK A01 T00850035  RH  071%=      5-min Rain = 0
KWT1 080725Z 20009KT 08/04 A3002 RMK A01 T00840035  RH  071%=      5-min Rain = 0
KWT1 080726Z 20009KT 08/04 A3002 RMK A01 T00840035  RH  071%=      5-min Rain = 0
KWT1 080727Z 20009KT 08/04 A3002 RMK A01 T00840035  RH  071%=      5-min Rain = 0
KWT1 080728Z 20009KT 08/04 A3002 RMK A01 T00840035  RH  071%=      5-min Rain = 0
KWT1 080729Z 20009KT 08/04 A3002 RMK A01 T00830035  RH  072%=      5-min Rain = 0
KWT1 080730Z 20009KT 08/04 A3001 RMK A01 T00830035  RH  072%=      5-min Rain = 0
KWT1 080731Z 20009KT 08/04 A3001 RMK A01 T00830035  RH  072%=      5-min Rain = 0
KWT1 080732Z 20009KT 08/04 A3001 RMK A01 T00820035  RH  072%=      5-min Rain = 0
KWT1 080733Z 20009KT 08/03 A3001 RMK A01 T00820034  RH  072%=      5-min Rain = 0
KWT1 080734Z 20009KT 08/03 A3001 RMK A01 T00810034  RH  072%=      5-min Rain = 0
KWT1 080735Z 20010KT 08/03 A3001 RMK A01 T00810034  RH  073%=      5-min Rain = 0
KWT1 080736Z 20010KT 08/03 A3001 RMK A01 T00800034  RH  073%=      5-min Rain = 0
KWT1 080737Z 20010KT 08/03 A3001 RMK A01 T00790034  RH  073%=      5-min Rain = 0
KWT1 080738Z 19011KT 08/03 A3001 RMK A01 T00790034  RH  073%=      5-min Rain = 0
KWT1 080739Z 19010KT 08/04 A3001 RMK A01 T00790035  RH  073%=      5-min Rain = 0
KWT1 080740Z 19010KT 08/03 A3001 RMK A01 T00790034  RH  073%=      5-min Rain = 0
KWT1 080741Z 19010KT 08/03 A3001 RMK A01 T00790034  RH  073%=      5-min Rain = 0
KWT1 080742Z 19010KT 08/03 A3001 RMK A01 T00780034  RH  074%=      5-min Rain = 0
KWT1 080743Z 19010KT 08/03 A3001 RMK A01 T00780034  RH  074%=      5-min Rain = 0
KWT1 080744Z 19010KT 08/03 A3001 RMK A01 T00780034  RH  074%=      5-min Rain = 0
KWT1 080745Z 19010KT 08/03 A30 RMK A01 T00780034  RH  074%=      5-min Rain = 0
KWT1 080746Z 19010KT 08/03 A30 RMK A01 T00770034  RH  074%=      5-min Rain = 0
KWT1 080747Z 19010KT 08/03 A30 RMK A01 T00780034  RH  074%=      5-min Rain = 0
KWT1 080748Z 19010KT 08/03 A30 RMK A01 T00770034  RH  074%=      5-min Rain = 0
KWT1 080749Z 19010KT 08/04 A30 RMK A01 T00780035  RH  074%=      5-min Rain = 0
KWT1 080750Z 19010KT 08/04 A30 RMK A01 T00780035  RH  074%=      5-min Rain = 0
KWT1 080751Z 19010KT 08/04 A30 RMK A01 T00780035  RH  074%=      5-min Rain = 0
KWT1 080752Z 20010KT 08/04 A30 RMK A01 T00780035  RH  074%=      5-min Rain = 0
KWT1 080753Z 19010KT 08/04 A3001 RMK A01 T00790035  RH  074%=      5-min Rain = 0
KWT1 080754Z 20010KT 08/04 A3001 RMK A01 T00800035  RH  074%=      5-min Rain = 0
KWT1 080755Z 20010KT 08/04 A3001 RMK A01 T00810036  RH  073%=      5-min Rain = 0
KWT1 080756Z 20010KT 08/04 A3001 RMK A01 T00810036  RH  073%=      5-min Rain = 0
KWT1 080757Z 19010KT 08/04 A3001 RMK A01 T00810036  RH  073%=      5-min Rain = 0
KWT1 080758Z 19009KT 08/04 A3001 RMK A01 T00820036  RH  073%=      5-min Rain = 0
KWT1 080759Z 20009KT 08/04 A3001 RMK A01 T00820036  RH  073%=      5-min Rain = 0
KWT1 080800Z 19010KT 08/04 A30 RMK A01 T00820036  RH  073%=      5-min Rain = 0
KWT1 080801Z 19010KT 08/04 A30 RMK A01 T00820036  RH  073%=      5-min Rain = 0
KWT1 080802Z 19010KT 08/04 A30 RMK A01 T00820036  RH  073%=      5-min Rain = 0
KWT1 080803Z 19010KT 08/04 A30 RMK A01 T00820036  RH  073%=      5-min Rain = 0
KWT1 080804Z 19011KT 08/04 A30 RMK A01 T00820036  RH  073%=      5-min Rain = 0
KWT1 080805Z 19011KT 08/04 A30 RMK A01 T00820036  RH  073%=      5-min Rain = 0
KWT1 080806Z 19011KT 08/04 A2999 RMK A01 T00820036  RH  073%=      5-min Rain = 0
KWT1 080807Z 19011KT 08/04 A2999 RMK A01 T00820036  RH  073%=      5-min Rain = 0
KWT1 080808Z 19011KT 08/04 A2999 RMK A01 T00820036  RH  073%=      5-min Rain = 0
KWT1 080809Z 19011KT 08/04 A30 RMK A01 T00820036  RH  073%=      5-min Rain = 0
KWT1 080810Z 19011KT 08/04 A30 RMK A01 T00820036  RH  073%=      5-min Rain = 0
KWT1 080811Z 19011KT 08/04 A30 RMK A01 T00830036  RH  072%=      5-min Rain = 0
KWT1 080812Z 19011KT 08/04 A30 RMK A01 T00830036  RH  072%=      5-min Rain = 0
KWT1 080813Z 19012KT 08/04 A30 RMK A01 T00830036  RH  072%=      5-min Rain = 0
KWT1 080814Z 19010KT 08/04 A30 RMK A01 T00830036  RH  072%=      5-min Rain = 0
KWT1 080815Z 19011KT 08/04 A30 RMK A01 T00840036  RH  072%=      5-min Rain = 0
KWT1 080816Z 19011KT 08/04 A2999 RMK A01 T00830036  RH  072%=      5-min Rain = 0
KWT1 080817Z 19011KT 08/04 A2999 RMK A01 T00840036  RH  072%=      5-min Rain = 0
KWT1 080818Z 19012KT 08/04 A2999 RMK A01 T00830036  RH  072%=      5-min Rain = 0
KWT1 080819Z 19011KT 08/04 A2999 RMK A01 T00830036  RH  072%=      5-min Rain = 0
KWT1 080820Z 19010KT 08/04 A2999 RMK A01 T00830036  RH  072%=      5-min Rain = 0
KWT1 080821Z 19010KT 08/04 A2999 RMK A01 T00830036  RH  072%=      5-min Rain = 0
KWT1 080822Z 19010KT 08/04 A2999 RMK A01 T00830036  RH  072%=      5-min Rain = 0
KWT1 080823Z 19011KT 08/04 A2999 RMK A01 T00830036  RH  073%=      5-min Rain = 0
KWT1 080824Z 19010KT 08/04 A2999 RMK A01 T00830037  RH  073%=      5-min Rain = 0
KWT1 080825Z 19010KT 08/04 A2999 RMK A01 T00830036  RH  073%=      5-min Rain = 0
KWT1 080826Z 19010KT 08/04 A2999 RMK A01 T00830036  RH  073%=      5-min Rain = 0
KWT1 080827Z 19010KT 08/04 A2998 RMK A01 T00830036  RH  073%=      5-min Rain = 0
KWT1 080828Z 19010KT 08/04 A2998 RMK A01 T00830037  RH  073%=      5-min Rain = 0
KWT1 080829Z 19010KT 08/04 A2998 RMK A01 T00820036  RH  073%=      5-min Rain = 0
KWT1 080830Z 19010KT 08/04 A2998 RMK A01 T00820037  RH  073%=      5-min Rain = 0
KWT1 080831Z 19010KT 08/04 A2998 RMK A01 T00820037  RH  073%=      5-min Rain = 0
KWT1 080832Z 19010KT 08/04 A2998 RMK A01 T00820037  RH  073%=      5-min Rain = 0
KWT1 080833Z 19010KT 08/04 A2999 RMK A01 T00820037  RH  073%=      5-min Rain = 0
KWT1 080834Z 20010KT 08/04 A2999 RMK A01 T00820037  RH  073%=      5-min Rain = 0
KWT1 080835Z 20009KT 08/04 A2999 RMK A01 T00820037  RH  073%=      5-min Rain = 0
KWT1 080836Z 20009KT 08/04 A2999 RMK A01 T00830037  RH  073%=      5-min Rain = 0
KWT1 080837Z 20010KT 08/04 A2999 RMK A01 T00830037  RH  073%=      5-min Rain = 0
KWT1 080838Z 20009KT 08/04 A2999 RMK A01 T00830037  RH  073%=      5-min Rain = 0
KWT1 080839Z 20009KT 08/04 A2999 RMK A01 T00830037  RH  073%=      5-min Rain = 0
KWT1 080840Z 20009KT 08/04 A2999 RMK A01 T00820037  RH  073%=      5-min Rain = 0
KWT1 080841Z 20009KT 08/04 A30 RMK A01 T00830037  RH  073%=      5-min Rain = 0
KWT1 080842Z 20009KT 08/04 A2999 RMK A01 T00830037  RH  073%=      5-min Rain = 0
KWT1 080843Z 20009KT 08/04 A2999 RMK A01 T00830037  RH  073%=      5-min Rain = 0
KWT1 080844Z 19010KT 08/04 A2999 RMK A01 T00830037  RH  073%=      5-min Rain = 0
KWT1 080845Z 20009KT 08/04 A2999 RMK A01 T00830037  RH  073%=      5-min Rain = 0
KWT1 080846Z 19010KT 08/04 A2999 RMK A01 T00830037  RH  073%=      5-min Rain = 0
KWT1 080847Z 20010KT 08/04 A2999 RMK A01 T00830037  RH  073%=      5-min Rain = 0
KWT1 080848Z 20009KT 08/04 A2999 RMK A01 T00830037  RH  073%=      5-min Rain = 0
KWT1 080849Z 20009KT 08/04 A2999 RMK A01 T00820037  RH  073%=      5-min Rain = 0
KWT1 080850Z 20008KT 08/04 A30 RMK A01 T00820037  RH  073%=      5-min Rain = 0
KWT1 080851Z 20008KT 08/04 A2999 RMK A01 T00820037  RH  073%=      5-min Rain = 0
KWT1 080852Z 20007KT 08/04 A2999 RMK A01 T00820038  RH  073%=      5-min Rain = 0
KWT1 080853Z 20008KT 08/04 A2999 RMK A01 T00820037  RH  073%=      5-min Rain = 0
KWT1 080854Z 20008KT 08/04 A2999 RMK A01 T00810037  RH  074%=      5-min Rain = 0
KWT1 080855Z 20008KT 08/04 A2999 RMK A01 T00810037  RH  074%=      5-min Rain = 0
KWT1 080856Z 20008KT 08/04 A2999 RMK A01 T00810037  RH  074%=      5-min Rain = 0
KWT1 080857Z 20008KT 08/04 A2999 RMK A01 T00810037  RH  074%=      5-min Rain = 0
KWT1 080858Z 20008KT 08/04 A2999 RMK A01 T00800037  RH  074%=      5-min Rain = 0
KWT1 080859Z 20008KT 08/04 A2999 RMK A01 T00800037  RH  074%=      5-min Rain = 0
KWT1 080900Z 20008KT 08/04 A2999 RMK A01 T00800037  RH  074%=      5-min Rain = 0
KWT1 080901Z 20008KT 08/04 A2999 RMK A01 T00790036  RH  074%=      5-min Rain = 0
KWT1 080902Z 20008KT 08/04 A2999 RMK A01 T00790037  RH  074%=      5-min Rain = 0
KWT1 080903Z 20008KT 08/04 A2999 RMK A01 T00790036  RH  075%=      5-min Rain = 0
KWT1 080904Z 20008KT 08/04 A2999 RMK A01 T00790036  RH  075%=      5-min Rain = 0
KWT1 080905Z 20008KT 08/04 A2999 RMK A01 T00790037  RH  075%=      5-min Rain = 0
KWT1 080906Z 20008KT 08/04 A2998 RMK A01 T00780036  RH  075%=      5-min Rain = 0
KWT1 080907Z 20008KT 08/04 A2998 RMK A01 T00780037  RH  075%=      5-min Rain = 0
KWT1 080908Z 19008KT 08/04 A2998 RMK A01 T00780036  RH  075%=      5-min Rain = 0
KWT1 080909Z 19008KT 08/04 A2998 RMK A01 T00780036  RH  075%=      5-min Rain = 0
KWT1 080910Z 20008KT 08/04 A2999 RMK A01 T00770036  RH  075%=      5-min Rain = 0
KWT1 080911Z 20009KT 08/04 A2999 RMK A01 T00760036  RH  076%=      5-min Rain = 0
KWT1 080912Z 20009KT 08/04 A2999 RMK A01 T00760036  RH  076%=      5-min Rain = 0
KWT1 080913Z 20009KT 08/04 A2999 RMK A01 T00760036  RH  076%=      5-min Rain = 0
KWT1 080914Z 20009KT 08/04 A2999 RMK A01 T00760037  RH  076%=      5-min Rain = 0
KWT1 080915Z 19009KT 08/04 A2999 RMK A01 T00760037  RH  076%=      5-min Rain = 0
KWT1 080916Z 19009KT 08/04 A2998 RMK A01 T00760037  RH  076%=      5-min Rain = 0
KWT1 080917Z 19009KT 08/04 A2999 RMK A01 T00760037  RH  076%=      5-min Rain = 0
KWT1 080918Z 20009KT 08/04 A2999 RMK A01 T00770037  RH  076%=      5-min Rain = 0
KWT1 080919Z 19009KT 08/04 A2998 RMK A01 T00770038  RH  076%=      5-min Rain = 0
KWT1 080920Z 19008KT 08/04 A2998 RMK A01 T00780038  RH  076%=      5-min Rain = 0
KWT1 080921Z 19008KT 08/04 A2998 RMK A01 T00780038  RH  076%=      5-min Rain = 0
KWT1 080922Z 19008KT 08/04 A2998 RMK A01 T00790038  RH  076%=      5-min Rain = 0
KWT1 080923Z 19008KT 08/04 A2998 RMK A01 T00790038  RH  076%=      5-min Rain = 0
KWT1 080924Z 19008KT 08/04 A2998 RMK A01 T00790038  RH  076%=      5-min Rain = 0
KWT1 080925Z 19008KT 08/04 A2998 RMK A01 T00790039  RH  076%=      5-min Rain = 0
KWT1 080926Z 20008KT 08/04 A2998 RMK A01 T00800039  RH  075%=      5-min Rain = 0
KWT1 080927Z 20008KT 08/04 A2998 RMK A01 T00800039  RH  075%=      5-min Rain = 0
KWT1 080928Z 20007KT 08/04 A2998 RMK A01 T00800039  RH  075%=      5-min Rain = 0
KWT1 080929Z 20008KT 08/04 A2998 RMK A01 T00800039  RH  075%=      5-min Rain = 0
KWT1 080930Z 20008KT 08/04 A2998 RMK A01 T00810039  RH  075%=      5-min Rain = 0
KWT1 080931Z 20007KT 08/04 A2998 RMK A01 T00810039  RH  075%=      5-min Rain = 0
KWT1 080932Z 20008KT 08/04 A2998 RMK A01 T00820039  RH  075%=      5-min Rain = 0
KWT1 080933Z 20007KT 08/04 A2998 RMK A01 T00820040  RH  075%=      5-min Rain = 0
KWT1 080934Z 20008KT 08/04 A2998 RMK A01 T00820040  RH  075%=      5-min Rain = 0
KWT1 080935Z 20008KT 08/04 A2998 RMK A01 T00830040  RH  074%=      5-min Rain = 0
KWT1 080936Z 20008KT 08/04 A2998 RMK A01 T00830040  RH  074%=      5-min Rain = 0
KWT1 080937Z 19008KT 08/04 A2998 RMK A01 T00840040  RH  074%=      5-min Rain = 0
KWT1 080938Z 20008KT 08/04 A2998 RMK A01 T00840040  RH  074%=      5-min Rain = 0
KWT1 080939Z 20008KT 09/04 A2998 RMK A01 T00850040  RH  074%=      5-min Rain = 0
KWT1 080940Z 19008KT 09/04 A2998 RMK A01 T00850040  RH  073%=      5-min Rain = 0
KWT1 080941Z 20008KT 09/04 A2998 RMK A01 T00860040  RH  073%=      5-min Rain = 0
KWT1 080942Z 20008KT 09/04 A2998 RMK A01 T00860041  RH  073%=      5-min Rain = 0
KWT1 080943Z 20008KT 09/04 A2998 RMK A01 T00860040  RH  073%=      5-min Rain = 0
KWT1 080944Z 20008KT 09/04 A2998 RMK A01 T00860040  RH  073%=      5-min Rain = 0
KWT1 080945Z 20008KT 09/04 A2998 RMK A01 T00860041  RH  073%=      5-min Rain = 0
KWT1 080946Z 20008KT 09/04 A2998 RMK A01 T00860040  RH  073%=      5-min Rain = 0
KWT1 080947Z 20008KT 09/04 A2997 RMK A01 T00860041  RH  073%=      5-min Rain = 0
KWT1 080948Z 19007KT 09/04 A2997 RMK A01 T00860041  RH  073%=      5-min Rain = 0
KWT1 080949Z 20007KT 09/04 A2997 RMK A01 T00860041  RH  073%=      5-min Rain = 0
KWT1 080950Z 20007KT 09/04 A2998 RMK A01 T00850041  RH  073%=      5-min Rain = 0
KWT1 080951Z 20007KT 09/04 A2998 RMK A01 T00850041  RH  073%=      5-min Rain = 0
KWT1 080952Z 20007KT 09/04 A2998 RMK A01 T00850041  RH  073%=      5-min Rain = 0
KWT1 080953Z 20007KT 09/04 A2998 RMK A01 T00850040  RH  074%=      5-min Rain = 0
KWT1 080954Z 21006KT 08/04 A2998 RMK A01 T00840040  RH  074%=      5-min Rain = 0
KWT1 080955Z 21006KT 08/04 A2998 RMK A01 T00840040  RH  074%=      5-min Rain = 0
KWT1 080956Z 21007KT 08/04 A2998 RMK A01 T00830039  RH  074%=      5-min Rain = 0
KWT1 080957Z 21007KT 08/04 A2998 RMK A01 T00820039  RH  074%=      5-min Rain = 0
KWT1 080958Z 21007KT 08/04 A2998 RMK A01 T00810038  RH  075%=      5-min Rain = 0
KWT1 080959Z 21008KT 08/04 A2998 RMK A01 T00800038  RH  075%=      5-min Rain = 0
KWT1 081000Z 21008KT 08/04 A2998 RMK A01 T00790038  RH  075%=      5-min Rain = 0
KWT1 081001Z 21009KT 08/04 A2998 RMK A01 T00790039  RH  076%=      5-min Rain = 0
KWT1 081002Z 21009KT 08/04 A2998 RMK A01 T00790039  RH  076%=      5-min Rain = 0
KWT1 081003Z 21009KT 08/04 A2997 RMK A01 T00790039  RH  076%=      5-min Rain = 0
KWT1 081004Z 21010KT 08/04 A2998 RMK A01 T00790039  RH  076%=      5-min Rain = 0
KWT1 081005Z 21010KT 08/04 A2998 RMK A01 T00800040  RH  076%=      5-min Rain = 0
KWT1 081006Z 21011KT 08/04 A2997 RMK A01 T00810040  RH  075%=      5-min Rain = 0
KWT1 081007Z 21010KT 08/04 A2998 RMK A01 T00810040  RH  075%=      5-min Rain = 0
KWT1 081008Z 21010KT 08/04 A2998 RMK A01 T00820041  RH  075%=      5-min Rain = 0
KWT1 081009Z 21010KT 08/04 A2997 RMK A01 T00820040  RH  075%=      5-min Rain = 0
KWT1 081010Z 21010KT 08/04 A2997 RMK A01 T00820041  RH  075%=      5-min Rain = 0
KWT1 081011Z 20011KT 08/04 A2997 RMK A01 T00830041  RH  075%=      5-min Rain = 0
KWT1 081012Z 21011KT 08/04 A2997 RMK A01 T00830041  RH  075%=      5-min Rain = 0
KWT1 081013Z 20011KT 08/04 A2997 RMK A01 T00840041  RH  074%=      5-min Rain = 0
KWT1 081014Z 20011KT 08/04 A2997 RMK A01 T00840041  RH  074%=      5-min Rain = 0
KWT1 081015Z 21010KT 08/04 A2997 RMK A01 T00840041  RH  074%=      5-min Rain = 0
KWT1 081016Z 21011KT 08/04 A2997 RMK A01 T00840041  RH  074%=      5-min Rain = 0
KWT1 081017Z 21010KT 09/04 A2997 RMK A01 T00850041  RH  074%=      5-min Rain = 0
KWT1 081018Z 20010KT 09/04 A2997 RMK A01 T00850041  RH  074%=      5-min Rain = 0
KWT1 081019Z 20010KT 09/04 A2997 RMK A01 T00850041  RH  074%=      5-min Rain = 0
KWT1 081020Z 20009KT 09/04 A2997 RMK A01 T00860041  RH  074%=      5-min Rain = 0
KWT1 081021Z 20009KT 09/04 A2997 RMK A01 T00860042  RH  074%=      5-min Rain = 0
KWT1 081022Z 20009KT 09/04 A2997 RMK A01 T00860042  RH  074%=      5-min Rain = 0
KWT1 081023Z 21009KT 09/04 A2997 RMK A01 T00860042  RH  074%=      5-min Rain = 0
KWT1 081024Z 20009KT 09/04 A2997 RMK A01 T00870042  RH  073%=      5-min Rain = 0
KWT1 081025Z 20009KT 09/04 A2997 RMK A01 T00880042  RH  073%=      5-min Rain = 0
KWT1 081026Z 20009KT 09/04 A2997 RMK A01 T00880042  RH  073%=      5-min Rain = 0
KWT1 081027Z 20009KT 09/04 A2997 RMK A01 T00890042  RH  073%=      5-min Rain = 0
KWT1 081028Z 20008KT 09/04 A2997 RMK A01 T00880042  RH  073%=      5-min Rain = 0
KWT1 081029Z 20009KT 09/04 A2997 RMK A01 T00890042  RH  073%=      5-min Rain = 0
KWT1 081030Z 20008KT 09/04 A2997 RMK A01 T00890042  RH  073%=      5-min Rain = 0
KWT1 081031Z 21008KT 09/04 A2997 RMK A01 T00880042  RH  073%=      5-min Rain = 0
KWT1 081032Z 20008KT 09/04 A2997 RMK A01 T00870042  RH  073%=      5-min Rain = 0
KWT1 081033Z 21008KT 09/04 A2997 RMK A01 T00860042  RH  074%=      5-min Rain = 0
KWT1 081034Z 21008KT 09/04 A2997 RMK A01 T00860042  RH  074%=      5-min Rain = 0
KWT1 081035Z 20008KT 09/04 A2997 RMK A01 T00850042  RH  074%=      5-min Rain = 0
KWT1 081036Z 21008KT 09/04 A2997 RMK A01 T00850042  RH  074%=      5-min Rain = 0
KWT1 081037Z 21007KT 08/04 A2997 RMK A01 T00840042  RH  075%=      5-min Rain = 0
KWT1 081038Z 21007KT 08/04 A2997 RMK A01 T00840042  RH  075%=      5-min Rain = 0
KWT1 081039Z 21007KT 08/04 A2997 RMK A01 T00830041  RH  075%=      5-min Rain = 0
KWT1 081040Z 21007KT 08/04 A2997 RMK A01 T00830042  RH  075%=      5-min Rain = 0
KWT1 081041Z 21007KT 08/04 A2997 RMK A01 T00820041  RH  075%=      5-min Rain = 0
KWT1 081042Z 22007KT 08/04 A2998 RMK A01 T00820041  RH  076%=      5-min Rain = 0
KWT1 081043Z 22007KT 08/04 A2998 RMK A01 T00810041  RH  076%=      5-min Rain = 0
KWT1 081044Z 22006KT 08/04 A2998 RMK A01 T00810041  RH  076%=      5-min Rain = 0
KWT1 081045Z 22007KT 08/04 A2998 RMK A01 T00810041  RH  076%=      5-min Rain = 0
KWT1 081046Z 22006KT 08/04 A2998 RMK A01 T00810041  RH  076%=      5-min Rain = 0
KWT1 081047Z 22006KT 08/04 A2998 RMK A01 T00810041  RH  076%=      5-min Rain = 0
KWT1 081048Z 23006KT 08/04 A2998 RMK A01 T00800041  RH  076%=      5-min Rain = 0
KWT1 081049Z 23005KT 08/04 A2998 RMK A01 T00800041  RH  076%=      5-min Rain = 0
KWT1 081050Z 23005KT 08/04 A2998 RMK A01 T00790041  RH  077%=      5-min Rain = 0
KWT1 081051Z 23005KT 08/04 A2999 RMK A01 T00780040  RH  077%=      5-min Rain = 0
KWT1 081052Z 23005KT 08/04 A2999 RMK A01 T00780040  RH  077%=      5-min Rain = 0
KWT1 081053Z 23005KT 08/04 A2999 RMK A01 T00770040  RH  077%=      5-min Rain = 0
KWT1 081054Z 23005KT 08/04 A2999 RMK A01 T00760039  RH  078%=      5-min Rain = 0
KWT1 081055Z 23006KT 08/04 A2998 RMK A01 T00760040  RH  078%=      5-min Rain = 0
KWT1 081056Z 23006KT 08/04 A2998 RMK A01 T00750040  RH  078%=      5-min Rain = 0
KWT1 081057Z 23006KT 08/04 A2998 RMK A01 T00750040  RH  078%=      5-min Rain = 0
KWT1 081058Z 22006KT 08/04 A2998 RMK A01 T00750040  RH  078%=      5-min Rain = 0
KWT1 081059Z 22006KT 07/04 A2998 RMK A01 T00740039  RH  079%=      5-min Rain = 0
KWT1 081100Z 22006KT 07/04 A2998 RMK A01 T00740040  RH  079%=      5-min Rain = 0
KWT1 081101Z 21006KT 07/04 A2998 RMK A01 T00740040  RH  079%=      5-min Rain = 0
KWT1 081102Z 21007KT 07/04 A2998 RMK A01 T00740039  RH  079%=      5-min Rain = 0
KWT1 081103Z 21007KT 07/04 A2998 RMK A01 T00730039  RH  079%=      5-min Rain = 0
KWT1 081104Z 21007KT 07/04 A2998 RMK A01 T00730039  RH  079%=      5-min Rain = 0
KWT1 081105Z 21007KT 07/04 A2998 RMK A01 T00720039  RH  079%=      5-min Rain = 0
KWT1 081106Z 21007KT 07/04 A2998 RMK A01 T00720038  RH  079%=      5-min Rain = 0
KWT1 081107Z 21007KT 07/04 A2998 RMK A01 T00710039  RH  080%=      5-min Rain = 0
KWT1 081108Z 21007KT 07/04 A2998 RMK A01 T00710038  RH  080%=      5-min Rain = 0
KWT1 081109Z 21006KT 07/04 A2997 RMK A01 T00710039  RH  080%=      5-min Rain = 0
KWT1 081110Z 21006KT 07/04 A2997 RMK A01 T00710038  RH  080%=      5-min Rain = 0
KWT1 081111Z 21006KT 07/04 A2997 RMK A01 T00710038  RH  080%=      5-min Rain = 0
KWT1 081112Z 21006KT 07/04 A2997 RMK A01 T00700038  RH  080%=      5-min Rain = 0
KWT1 081113Z 21006KT 07/04 A2997 RMK A01 T00690037  RH  080%=      5-min Rain = 0
KWT1 081114Z 21006KT 07/04 A2997 RMK A01 T00690037  RH  080%=      5-min Rain = 0
KWT1 081115Z 21006KT 07/04 A2997 RMK A01 T00680037  RH  080%=      5-min Rain = 0
KWT1 081116Z 21005KT 07/04 A2997 RMK A01 T00670037  RH  081%=      5-min Rain = 0
KWT1 081117Z 20005KT 07/04 A2997 RMK A01 T00670037  RH  081%=      5-min Rain = 0
KWT1 081118Z 20005KT 07/04 A2997 RMK A01 T00660036  RH  081%=      5-min Rain = 0
KWT1 081119Z 20005KT 07/04 A2997 RMK A01 T00660036  RH  081%=      5-min Rain = 0
KWT1 081120Z 20005KT 07/04 A2997 RMK A01 T00650036  RH  081%=      5-min Rain = 0
KWT1 081121Z 19005KT 06/04 A2997 RMK A01 T00640036  RH  082%=      5-min Rain = 0
KWT1 081122Z 19005KT 06/04 A2996 RMK A01 T00640035  RH  082%=      5-min Rain = 0
KWT1 081123Z 19005KT 06/04 A2996 RMK A01 T00630036  RH  083%=      5-min Rain = 0
KWT1 081124Z 19006KT 06/04 A2996 RMK A01 T00630036  RH  083%=      5-min Rain = 0
KWT1 081125Z 19005KT 06/04 A2996 RMK A01 T00630036  RH  083%=      5-min Rain = 0
KWT1 081126Z 19005KT 06/04 A2996 RMK A01 T00630036  RH  083%=      5-min Rain = 0
KWT1 081127Z 20005KT 06/04 A2996 RMK A01 T00630036  RH  083%=      5-min Rain = 0
KWT1 081128Z 20005KT 06/04 A2996 RMK A01 T00630036  RH  083%=      5-min Rain = 0
KWT1 081129Z 20005KT 06/04 A2996 RMK A01 T00630036  RH  083%=      5-min Rain = 0
KWT1 081130Z 20006KT 06/04 A2996 RMK A01 T00630036  RH  083%=      5-min Rain = 0
KWT1 081131Z 20006KT 06/04 A2996 RMK A01 T00630036  RH  083%=      5-min Rain = 0
KWT1 081132Z 20006KT 06/04 A2996 RMK A01 T00620036  RH  083%=      5-min Rain = 0
KWT1 081133Z 20006KT 06/04 A2996 RMK A01 T00620035  RH  083%=      5-min Rain = 0
KWT1 081134Z 20006KT 06/04 A2996 RMK A01 T00620036  RH  083%=      5-min Rain = 0
KWT1 081135Z 20005KT 06/04 A2996 RMK A01 T00620035  RH  083%=      5-min Rain = 0
KWT1 081136Z 20006KT 06/04 A2996 RMK A01 T00620036  RH  083%=      5-min Rain = 0
KWT1 081137Z 20006KT 06/04 A2996 RMK A01 T00620036  RH  083%=      5-min Rain = 0
KWT1 081138Z 21006KT 06/04 A2996 RMK A01 T00630037  RH  083%=      5-min Rain = 0
KWT1 081139Z 20007KT 06/04 A2996 RMK A01 T00630037  RH  083%=      5-min Rain = 0
KWT1 081140Z 20007KT 06/04 A2996 RMK A01 T00640037  RH  083%=      5-min Rain = 0
KWT1 081141Z 20007KT 06/04 A2996 RMK A01 T00640037  RH  083%=      5-min Rain = 0
KWT1 081142Z 21008KT 07/04 A2996 RMK A01 T00650037  RH  083%=      5-min Rain = 0
KWT1 081143Z 21008KT 07/04 A2996 RMK A01 T00660038  RH  082%=      5-min Rain = 0
KWT1 081144Z 21008KT 07/04 A2996 RMK A01 T00670039  RH  082%=      5-min Rain = 0
KWT1 081145Z 21008KT 07/04 A2996 RMK A01 T00690040  RH  082%=      5-min Rain = 0
KWT1 081146Z 21008KT 07/04 A2996 RMK A01 T00700040  RH  081%=      5-min Rain = 0
KWT1 081147Z 21007KT 07/04 A2996 RMK A01 T00710040  RH  081%=      5-min Rain = 0
KWT1 081148Z 21008KT 07/04 A2996 RMK A01 T00720040  RH  080%=      5-min Rain = 0
KWT1 081149Z 21008KT 07/04 A2996 RMK A01 T00730041  RH  080%=      5-min Rain = 0
KWT1 081150Z 21009KT 07/04 A2996 RMK A01 T00730040  RH  080%=      5-min Rain = 0
KWT1 081151Z 21009KT 07/04 A2996 RMK A01 T00740040  RH  079%=      5-min Rain = 0
KWT1 081152Z 21009KT 08/04 A2996 RMK A01 T00750041  RH  079%=      5-min Rain = 0
KWT1 081153Z 21009KT 08/04 A2996 RMK A01 T00750040  RH  078%=      5-min Rain = 0
KWT1 081154Z 21009KT 08/04 A2996 RMK A01 T00750040  RH  078%=      5-min Rain = 0
KWT1 081155Z 20009KT 08/04 A2996 RMK A01 T00750040  RH  078%=      5-min Rain = 0
KWT1 081156Z 20009KT 08/04 A2996 RMK A01 T00750040  RH  078%=      5-min Rain = 0
KWT1 081157Z 20008KT 08/04 A2996 RMK A01 T00750040  RH  078%=      5-min Rain = 0
KWT1 081158Z 20008KT 07/04 A2996 RMK A01 T00740039  RH  079%=      5-min Rain = 0
KWT1 081159Z 20008KT 07/04 A2996 RMK A01 T00740040  RH  079%=      5-min Rain = 0
KWT1 081200Z 20008KT 07/04 A2996 RMK A01 T00730039  RH  079%=      5-min Rain = 0
KWT1 081201Z 20008KT 07/04 A2996 RMK A01 T00730039  RH  079%=      5-min Rain = 0
KWT1 081202Z 20008KT 07/04 A2996 RMK A01 T00730039  RH  079%=      5-min Rain = 0
KWT1 081203Z 20009KT 07/04 A2996 RMK A01 T00720039  RH  079%=      5-min Rain = 0
KWT1 081204Z 20009KT 07/04 A2996 RMK A01 T00720039  RH  080%=      5-min Rain = 0
KWT1 081205Z 20009KT 07/04 A2996 RMK A01 T00710039  RH  080%=      5-min Rain = 0
KWT1 081206Z 20008KT 07/04 A2996 RMK A01 T00710039  RH  080%=      5-min Rain = 0
KWT1 081207Z 20008KT 07/04 A2996 RMK A01 T00710039  RH  080%=      5-min Rain = 0
KWT1 081208Z 20008KT 07/04 A2996 RMK A01 T00710039  RH  080%=      5-min Rain = 0
KWT1 081209Z 20008KT 07/04 A2996 RMK A01 T00700039  RH  080%=      5-min Rain = 0
KWT1 081210Z 20008KT 07/04 A2996 RMK A01 T00710039  RH  080%=      5-min Rain = 0
KWT1 081211Z 20007KT 07/04 A2996 RMK A01 T00700039  RH  080%=      5-min Rain = 0
KWT1 081212Z 20007KT 07/04 A2996 RMK A01 T00700039  RH  080%=      5-min Rain = 0
KWT1 081213Z 20007KT 07/04 A2996 RMK A01 T00700038  RH  080%=      5-min Rain = 0
KWT1 081214Z 20007KT 07/04 A2996 RMK A01 T00690038  RH  081%=      5-min Rain = 0
KWT1 081215Z 20007KT 07/04 A2996 RMK A01 T00690039  RH  081%=      5-min Rain = 0
KWT1 081216Z 20007KT 07/04 A2996 RMK A01 T00690039  RH  081%=      5-min Rain = 0
KWT1 081217Z 20007KT 07/04 A2996 RMK A01 T00680038  RH  081%=      5-min Rain = 0
KWT1 081218Z 20007KT 07/04 A2996 RMK A01 T00680039  RH  081%=      5-min Rain = 0
KWT1 081219Z 20007KT 07/04 A2996 RMK A01 T00680038  RH  081%=      5-min Rain = 0
KWT1 081220Z 20007KT 07/04 A2996 RMK A01 T00670038  RH  082%=      5-min Rain = 0
KWT1 081221Z 21007KT 07/04 A2996 RMK A01 T00670038  RH  082%=      5-min Rain = 0
KWT1 081222Z 21007KT 07/04 A2996 RMK A01 T00670038  RH  082%=      5-min Rain = 0
KWT1 081223Z 21008KT 07/04 A2996 RMK A01 T00670039  RH  082%=      5-min Rain = 0
KWT1 081224Z 20008KT 07/04 A2996 RMK A01 T00670038  RH  082%=      5-min Rain = 0
KWT1 081225Z 20008KT 07/04 A2996 RMK A01 T00660037  RH  082%=      5-min Rain = 0
KWT1 081226Z 20008KT 07/04 A2995 RMK A01 T00650037  RH  082%=      5-min Rain = 0
KWT1 081227Z 20008KT 07/04 A2995 RMK A01 T00650038  RH  083%=      5-min Rain = 0
KWT1 081228Z 21008KT 06/04 A2995 RMK A01 T00640037  RH  083%=      5-min Rain = 0
KWT1 081229Z 21007KT 06/04 A2995 RMK A01 T00640037  RH  083%=      5-min Rain = 0
KWT1 081230Z 21007KT 06/04 A2995 RMK A01 T00630037  RH  083%=      5-min Rain = 0
KWT1 081231Z 21007KT 06/04 A2995 RMK A01 T00630037  RH  083%=      5-min Rain = 0
KWT1 081232Z 21007KT 06/04 A2995 RMK A01 T00630037  RH  084%=      5-min Rain = 0
KWT1 081233Z 21007KT 06/04 A2995 RMK A01 T00620036  RH  084%=      5-min Rain = 0
KWT1 081234Z 21007KT 06/04 A2995 RMK A01 T00620037  RH  084%=      5-min Rain = 0
KWT1 081235Z 20007KT 06/04 A2995 RMK A01 T00610036  RH  084%=      5-min Rain = 0
KWT1 081236Z 20007KT 06/04 A2995 RMK A01 T00600036  RH  084%=      5-min Rain = 0
KWT1 081237Z 21007KT 06/04 A2995 RMK A01 T00600036  RH  084%=      5-min Rain = 0
KWT1 081238Z 21007KT 06/04 A2995 RMK A01 T00590035  RH  084%=      5-min Rain = 0
KWT1 081239Z 21008KT 06/04 A2995 RMK A01 T00590035  RH  085%=      5-min Rain = 0
KWT1 081240Z 21008KT 06/04 A2995 RMK A01 T00580035  RH  085%=      5-min Rain = 0
KWT1 081241Z 21008KT 06/04 A2995 RMK A01 T00580035  RH  085%=      5-min Rain = 0
KWT1 081242Z 21008KT 06/04 A2995 RMK A01 T00580035  RH  085%=      5-min Rain = 0
KWT1 081243Z 21008KT 06/04 A2995 RMK A01 T00580036  RH  086%=      5-min Rain = 0
KWT1 081244Z 21008KT 06/04 A2995 RMK A01 T00580036  RH  086%=      5-min Rain = 0
KWT1 081245Z 22008KT 06/04 A2996 RMK A01 T00590037  RH  086%=      5-min Rain = 0
KWT1 081246Z 22008KT 06/04 A2996 RMK A01 T00610037  RH  085%=      5-min Rain = 0
KWT1 081247Z 22008KT 06/04 A2996 RMK A01 T00610037  RH  085%=      5-min Rain = 0
KWT1 081248Z 22008KT 06/04 A2996 RMK A01 T00620038  RH  085%=      5-min Rain = 0
KWT1 081249Z 23008KT 06/04 A2996 RMK A01 T00620038  RH  084%=      5-min Rain = 0
KWT1 081250Z 23009KT 06/04 A2996 RMK A01 T00620037  RH  084%=      5-min Rain = 0
KWT1 081251Z 22008KT 06/04 A2996 RMK A01 T00600035  RH  084%=      5-min Rain = 0
KWT1 081252Z 23008KT 06/04 A2996 RMK A01 T00590035  RH  084%=      5-min Rain = 0
KWT1 081253Z 23008KT 06/04 A2996 RMK A01 T00590035  RH  085%=      5-min Rain = 0
KWT1 081254Z 23008KT 06/04 A2996 RMK A01 T00580035  RH  085%=      5-min Rain = 0
KWT1 081255Z 23008KT 06/04 A2996 RMK A01 T00580035  RH  085%=      5-min Rain = 0
KWT1 081256Z 23009KT 06/04 A2996 RMK A01 T00580035  RH  086%=      5-min Rain = 0
KWT1 081257Z 23009KT 06/04 A2996 RMK A01 T00570035  RH  086%=      5-min Rain = 0
KWT1 081258Z 23009KT 06/04 A2996 RMK A01 T00570035  RH  086%=      5-min Rain = 0
KWT1 081259Z 23009KT 06/04 A2996 RMK A01 T00580036  RH  086%=      5-min Rain = 0
KWT1 081300Z 23009KT 06/04 A2996 RMK A01 T00580036  RH  086%=      5-min Rain = 0
KWT1 081301Z 23009KT 06/04 A2996 RMK A01 T00580036  RH  086%=      5-min Rain = 0
KWT1 081302Z 23009KT 06/04 A2996 RMK A01 T00590036  RH  086%=      5-min Rain = 0
KWT1 081303Z 23008KT 06/04 A2996 RMK A01 T00590036  RH  085%=      5-min Rain = 0
KWT1 081304Z 23008KT 06/04 A2996 RMK A01 T00590036  RH  085%=      5-min Rain = 0
KWT1 081305Z 23009KT 06/04 A2996 RMK A01 T00590036  RH  085%=      5-min Rain = 0
KWT1 081306Z 23009KT 06/04 A2996 RMK A01 T00590036  RH  085%=      5-min Rain = 0
KWT1 081307Z 23009KT 06/04 A2996 RMK A01 T00590036  RH  085%=      5-min Rain = 0
KWT1 081308Z 23008KT 06/04 A2996 RMK A01 T00590037  RH  085%=      5-min Rain = 0
KWT1 081309Z 23008KT 06/04 A2996 RMK A01 T00600037  RH  085%=      5-min Rain = 0
KWT1 081310Z 23009KT 06/04 A2996 RMK A01 T00610038  RH  085%=      5-min Rain = 0
KWT1 081311Z 23009KT 06/04 A2996 RMK A01 T00620038  RH  084%=      5-min Rain = 0
KWT1 081312Z 22009KT 06/04 A2996 RMK A01 T00630038  RH  084%=      5-min Rain = 0
KWT1 081313Z 23009KT 06/04 A2996 RMK A01 T00630038  RH  084%=      5-min Rain = 0
KWT1 081314Z 23009KT 06/04 A2997 RMK A01 T00630038  RH  084%=      5-min Rain = 0
KWT1 081315Z 23009KT 06/04 A2996 RMK A01 T00630038  RH  084%=      5-min Rain = 0
KWT1 081316Z 22009KT 06/04 A2996 RMK A01 T00640038  RH  084%=      5-min Rain = 0
KWT1 081317Z 23009KT 07/04 A2996 RMK A01 T00650039  RH  084%=      5-min Rain = 0
KWT1 081318Z 23009KT 07/04 A2996 RMK A01 T00650039  RH  083%=      5-min Rain = 0
KWT1 081319Z 23009KT 07/04 A2996 RMK A01 T00660039  RH  083%=      5-min Rain = 0
KWT1 081320Z 23009KT 07/04 A2996 RMK A01 T00670039  RH  082%=      5-min Rain = 0
KWT1 081321Z 23009KT 07/04 A2996 RMK A01 T00670039  RH  082%=      5-min Rain = 0
KWT1 081322Z 23009KT 07/04 A2996 RMK A01 T00670038  RH  082%=      5-min Rain = 0
KWT1 081323Z 23009KT 07/04 A2996 RMK A01 T00670039  RH  082%=      5-min Rain = 0
KWT1 081324Z 22010KT 07/04 A2996 RMK A01 T00670038  RH  082%=      5-min Rain = 0
KWT1 081325Z 23009KT 07/04 A2996 RMK A01 T00670038  RH  082%=      5-min Rain = 0
KWT1 081326Z 23010KT 07/04 A2996 RMK A01 T00670038  RH  082%=      5-min Rain = 0
KWT1 081327Z 23009KT 07/04 A2996 RMK A01 T00670038  RH  082%=      5-min Rain = 0
KWT1 081328Z 23009KT 07/04 A2996 RMK A01 T00670038  RH  082%=      5-min Rain = 0
KWT1 081329Z 23009KT 07/04 A2996 RMK A01 T00670038  RH  082%=      5-min Rain = 0
KWT1 081330Z 23009KT 07/04 A2996 RMK A01 T00670038  RH  082%=      5-min Rain = 0
KWT1 081331Z 23009KT 07/04 A2996 RMK A01 T00670038  RH  082%=      5-min Rain = 0
KWT1 081332Z 23009KT 07/04 A2996 RMK A01 T00660037  RH  082%=      5-min Rain = 0
KWT1 081333Z 23009KT 07/04 A2996 RMK A01 T00650037  RH  082%=      5-min Rain = 0
KWT1 081334Z 23009KT 07/04 A2996 RMK A01 T00650037  RH  082%=      5-min Rain = 0
KWT1 081335Z 23009KT 06/04 A2997 RMK A01 T00640037  RH  083%=      5-min Rain = 0
KWT1 081336Z 23009KT 06/04 A2997 RMK A01 T00640037  RH  083%=      5-min Rain = 0
KWT1 081337Z 24010KT 06/04 A2997 RMK A01 T00640038  RH  083%=      5-min Rain = 0
KWT1 081338Z 23010KT 06/04 A2997 RMK A01 T00640038  RH  083%=      5-min Rain = 0
KWT1 081339Z 23010KT 07/04 A2997 RMK A01 T00650038  RH  083%=      5-min Rain = 0
KWT1 081340Z 23009KT 07/04 A2997 RMK A01 T00650038  RH  083%=      5-min Rain = 0
KWT1 081341Z 23010KT 07/04 A2997 RMK A01 T00660038  RH  083%=      5-min Rain = 0
KWT1 081342Z 23009KT 07/04 A2997 RMK A01 T00670039  RH  082%=      5-min Rain = 0
KWT1 081343Z 23009KT 07/04 A2997 RMK A01 T00670039  RH  082%=      5-min Rain = 0
KWT1 081344Z 23009KT 07/04 A2997 RMK A01 T00680039  RH  082%=      5-min Rain = 0
KWT1 081345Z 23009KT 07/04 A2997 RMK A01 T00690039  RH  082%=      5-min Rain = 0
KWT1 081346Z 23009KT 07/04 A2997 RMK A01 T00690040  RH  081%=      5-min Rain = 0
KWT1 081347Z 23009KT 07/04 A2997 RMK A01 T00700040  RH  081%=      5-min Rain = 0
KWT1 081348Z 23009KT 07/04 A2997 RMK A01 T00700039  RH  081%=      5-min Rain = 0
KWT1 081349Z 23010KT 07/04 A2997 RMK A01 T00700040  RH  081%=      5-min Rain = 0
KWT1 081350Z 23010KT 07/04 A2997 RMK A01 T00700040  RH  081%=      5-min Rain = 0
KWT1 081351Z 23010KT 07/04 A2997 RMK A01 T00700040  RH  081%=      5-min Rain = 0
KWT1 081352Z 23010KT 07/04 A2997 RMK A01 T00710041  RH  081%=      5-min Rain = 0
KWT1 081353Z 23011KT 07/04 A2997 RMK A01 T00720041  RH  081%=      5-min Rain = 0
KWT1 081354Z 23011KT 07/04 A2997 RMK A01 T00720041  RH  080%=      5-min Rain = 0
KWT1 081355Z 23010KT 07/04 A2996 RMK A01 T00730041  RH  080%=      5-min Rain = 0
KWT1 081356Z 23010KT 07/04 A2996 RMK A01 T00730041  RH  080%=      5-min Rain = 0
KWT1 081357Z 22010KT 07/04 A2996 RMK A01 T00740041  RH  080%=      5-min Rain = 0
KWT1 081358Z 23011KT 08/04 A2996 RMK A01 T00750042  RH  079%=      5-min Rain = 0
KWT1 081359Z 23011KT 08/04 A2996 RMK A01 T00760042  RH  079%=      5-min Rain = 0
KWT1 081400Z 23011KT 08/04 A2996 RMK A01 T00770042  RH  079%=      5-min Rain = 0
KWT1 081401Z 23010KT 08/04 A2996 RMK A01 T00780042  RH  078%=      5-min Rain = 0
KWT1 081402Z 22011KT 08/04 A2996 RMK A01 T00780042  RH  078%=      5-min Rain = 0
KWT1 081403Z 22011KT 08/04 A2996 RMK A01 T00790043  RH  078%=      5-min Rain = 0
KWT1 081404Z 23011KT 08/04 A2996 RMK A01 T00810044  RH  077%=      5-min Rain = 0
KWT1 081405Z 22011KT 08/04 A2996 RMK A01 T00820044  RH  077%=      5-min Rain = 0
KWT1 081406Z 23011KT 08/04 A2996 RMK A01 T00820044  RH  077%=      5-min Rain = 0
KWT1 081407Z 23011KT 08/04 A2996 RMK A01 T00830044  RH  076%=      5-min Rain = 0
KWT1 081408Z 22011KT 08/04 A2996 RMK A01 T00840044  RH  076%=      5-min Rain = 0
KWT1 081409Z 23011KT 08/04 A2996 RMK A01 T00840044  RH  076%=      5-min Rain = 0
KWT1 081410Z 23010KT 08/04 A2996 RMK A01 T00840044  RH  076%=      5-min Rain = 0
KWT1 081411Z 22009KT 09/04 A2996 RMK A01 T00850044  RH  076%=      5-min Rain = 0
KWT1 081412Z 22009KT 09/04 A2996 RMK A01 T00850044  RH  075%=      5-min Rain = 0
KWT1 081413Z 23010KT 09/04 A2996 RMK A01 T00850044  RH  075%=      5-min Rain = 0
KWT1 081414Z 23011KT 09/04 A2996 RMK A01 T00860044  RH  075%=      5-min Rain = 0
KWT1 081415Z 23010KT 09/04 A2996 RMK A01 T00860044  RH  075%=      5-min Rain = 0
KWT1 081416Z 22011KT 09/04 A2996 RMK A01 T00860044  RH  075%=      5-min Rain = 0
KWT1 081417Z 22010KT 09/04 A2996 RMK A01 T00860044  RH  075%=      5-min Rain = 0
KWT1 081418Z 22010KT 09/04 A2996 RMK A01 T00860044  RH  075%=      5-min Rain = 0
KWT1 081419Z 22011KT 09/05 A2996 RMK A01 T00870045  RH  075%=      5-min Rain = 0
KWT1 081420Z 22011KT 09/04 A2996 RMK A01 T00870044  RH  075%=      5-min Rain = 0
KWT1 081421Z 22010KT 09/04 A2996 RMK A01 T00870044  RH  075%=      5-min Rain = 0
KWT1 081422Z 22010KT 09/04 A2996 RMK A01 T00860044  RH  075%=      5-min Rain = 0
KWT1 081423Z 22011KT 09/04 A2996 RMK A01 T00870044  RH  075%=      5-min Rain = 0
KWT1 081424Z 22010KT 09/04 A2996 RMK A01 T00870044  RH  075%=      5-min Rain = 0
KWT1 081425Z 22011KT 09/04 A2996 RMK A01 T00870044  RH  075%=      5-min Rain = 0
KWT1 081426Z 22009KT 09/04 A2996 RMK A01 T00870044  RH  075%=      5-min Rain = 0
KWT1 081427Z 22012KT 09/04 A2996 RMK A01 T00860044  RH  074%=      5-min Rain = 0
KWT1 081428Z 22011KT 09/04 A2996 RMK A01 T00870044  RH  074%=      5-min Rain = 0
KWT1 081429Z 22011KT 09/04 A2996 RMK A01 T00870044  RH  074%=      5-min Rain = 0
KWT1 081430Z 22011KT 09/04 A2996 RMK A01 T00870044  RH  074%=      5-min Rain = 0
KWT1 081431Z 22010KT 09/04 A2996 RMK A01 T00880044  RH  074%=      5-min Rain = 0
KWT1 081432Z 22011KT 09/04 A2996 RMK A01 T00880044  RH  074%=      5-min Rain = 0
KWT1 081433Z 22011KT 09/04 A2996 RMK A01 T00890044  RH  074%=      5-min Rain = 0
KWT1 081434Z 22011KT 09/04 A2996 RMK A01 T00890044  RH  073%=      5-min Rain = 0
KWT1 081435Z 22012KT 09/04 A2996 RMK A01 T00900044  RH  073%=      5-min Rain = 0
KWT1 081436Z 22012KT 09/04 A2995 RMK A01 T00910044  RH  073%=      5-min Rain = 0
KWT1 081437Z 22012KT 09/04 A2995 RMK A01 T00920044  RH  072%=      5-min Rain = 0
KWT1 081438Z 22012KT 09/05 A2995 RMK A01 T00930045  RH  072%=      5-min Rain = 0
KWT1 081439Z 22012KT 09/05 A2995 RMK A01 T00940045  RH  071%=      5-min Rain = 0
KWT1 081440Z 22011KT 09/05 A2995 RMK A01 T00940045  RH  071%=      5-min Rain = 0
KWT1 081441Z 22012KT 10/05 A2995 RMK A01 T00950045  RH  071%=      5-min Rain = 0
KWT1 081442Z 22010KT 10/05 A2995 RMK A01 T00950045  RH  071%=      5-min Rain = 0
KWT1 081443Z 22012KT 10/05 A2995 RMK A01 T00950045  RH  071%=      5-min Rain = 0
KWT1 081444Z 22011KT 10/05 A2995 RMK A01 T00960045  RH  070%=      5-min Rain = 0
KWT1 081445Z 22011KT 10/05 A2995 RMK A01 T00970045  RH  070%=      5-min Rain = 0
KWT1 081446Z 22012KT 10/05 A2995 RMK A01 T00970045  RH  070%=      5-min Rain = 0
KWT1 081447Z 22010KT 10/05 A2995 RMK A01 T00970045  RH  070%=      5-min Rain = 0
KWT1 081448Z 22010KT 10/05 A2995 RMK A01 T00970045  RH  070%=      5-min Rain = 0
KWT1 081449Z 22012KT 10/05 A2995 RMK A01 T00970045  RH  070%=      5-min Rain = 0
KWT1 081450Z 22011KT 10/04 A2995 RMK A01 T00960044  RH  070%=      5-min Rain = 0
KWT1 081451Z 22011KT 10/05 A2995 RMK A01 T00960045  RH  070%=      5-min Rain = 0
KWT1 081452Z 22010KT 10/05 A2995 RMK A01 T00960045  RH  070%=      5-min Rain = 0
KWT1 081453Z 22010KT 10/05 A2995 RMK A01 T00960045  RH  070%=      5-min Rain = 0
KWT1 081454Z 22010KT 10/05 A2995 RMK A01 T00970046  RH  070%=      5-min Rain = 0
KWT1 081455Z 22011KT 10/05 A2995 RMK A01 T00980046  RH  070%=      5-min Rain = 0
KWT1 081456Z 22011KT 10/05 A2995 RMK A01 T00990046  RH  070%=      5-min Rain = 0
KWT1 081457Z 22010KT 10/05 A2995 RMK A01 T00990046  RH  069%=      5-min Rain = 0
KWT1 081458Z 22009KT 10/05 A2995 RMK A01 T01010047  RH  069%=      5-min Rain = 0
KWT1 081459Z 21010KT 10/05 A2995 RMK A01 T01010047  RH  069%=      5-min Rain = 0
KWT1 081500Z 22010KT 10/05 A2995 RMK A01 T01020047  RH  068%=      5-min Rain = 0
KWT1 081501Z 22011KT 10/05 A2995 RMK A01 T01030047  RH  068%=      5-min Rain = 0
KWT1 081502Z 22010KT 10/05 A2995 RMK A01 T01030047  RH  068%=      5-min Rain = 0
KWT1 081503Z 22009KT 10/05 A2995 RMK A01 T01040046  RH  068%=      5-min Rain = 0
KWT1 081504Z 22010KT 11/05 A2995 RMK A01 T01050047  RH  067%=      5-min Rain = 0
KWT1 081505Z 22010KT 11/05 A2995 RMK A01 T01060047  RH  067%=      5-min Rain = 0
KWT1 081506Z 22011KT 11/05 A2995 RMK A01 T01060046  RH  066%=      5-min Rain = 0
KWT1 081507Z 22012KT 11/05 A2995 RMK A01 T01060046  RH  066%=      5-min Rain = 0
KWT1 081508Z 22011KT 11/05 A2995 RMK A01 T01060046  RH  066%=      5-min Rain = 0
KWT1 081509Z 22009KT 11/05 A2995 RMK A01 T01060046  RH  066%=      5-min Rain = 0
KWT1 081510Z 23010KT 11/05 A2996 RMK A01 T01070047  RH  066%=      5-min Rain = 0
KWT1 081511Z 22011KT 11/05 A2996 RMK A01 T01080046  RH  066%=      5-min Rain = 0
KWT1 081512Z 22009KT 11/05 A2996 RMK A01 T01090047  RH  065%=      5-min Rain = 0
KWT1 081513Z 22010KT 11/05 A2996 RMK A01 T01110048  RH  065%=      5-min Rain = 0
KWT1 081514Z 22011KT 11/05 A2996 RMK A01 T01120048  RH  065%=      5-min Rain = 0
KWT1 081515Z 22009KT 11/05 A2996 RMK A01 T01120047  RH  065%=      5-min Rain = 0
KWT1 081516Z 22009KT 11/05 A2996 RMK A01 T01120049  RH  065%=      5-min Rain = 0
KWT1 081517Z 22011KT 11/05 A2996 RMK A01 T01130048  RH  064%=      5-min Rain = 0
KWT1 081518Z 22010KT 11/05 A2996 RMK A01 T01130047  RH  064%=      5-min Rain = 0
KWT1 081519Z 22010KT 11/05 A2996 RMK A01 T01130047  RH  064%=      5-min Rain = 0
KWT1 081520Z 23010KT 11/05 A2996 RMK A01 T01130048  RH  064%=      5-min Rain = 0
KWT1 081521Z 23010KT 11/05 A2996 RMK A01 T01120047  RH  064%=      5-min Rain = 0
KWT1 081522Z 23010KT 11/05 A2996 RMK A01 T01120048  RH  065%=      5-min Rain = 0
KWT1 081523Z 23008KT 11/05 A2996 RMK A01 T01130049  RH  065%=      5-min Rain = 0
KWT1 081524Z 22010KT 11/05 A2996 RMK A01 T01130049  RH  064%=      5-min Rain = 0
KWT1 081525Z 22011KT 11/05 A2996 RMK A01 T01140048  RH  064%=      5-min Rain = 0
KWT1 081526Z 22009KT 11/05 A2996 RMK A01 T01140048  RH  064%=      5-min Rain = 0
KWT1 081527Z 23011KT 11/05 A2996 RMK A01 T01130048  RH  064%=      5-min Rain = 0
KWT1 081528Z 22011KT 11/05 A2996 RMK A01 T01130048  RH  064%=      5-min Rain = 0
KWT1 081529Z 22010KT 11/05 A2996 RMK A01 T01140049  RH  064%=      5-min Rain = 0
KWT1 081530Z 22011KT 12/05 A2995 RMK A01 T01150050  RH  064%=      5-min Rain = 0
KWT1 081531Z 22010KT 12/05 A2995 RMK A01 T01150049  RH  064%=      5-min Rain = 0
KWT1 081532Z 23010KT 12/05 A2995 RMK A01 T01160050  RH  064%=      5-min Rain = 0
KWT1 081533Z 23012KT 12/05 A2995 RMK A01 T01180050  RH  063%=      5-min Rain = 0
KWT1 081534Z 24013KT 12/05 A2995 RMK A01 T01180049  RH  063%=      5-min Rain = 0
KWT1 081535Z 22011KT 12/05 A2995 RMK A01 T01180049  RH  063%=      5-min Rain = 0
KWT1 081536Z 22013KT 12/05 A2995 RMK A01 T01180049  RH  063%=      5-min Rain = 0
KWT1 081537Z 22010KT 12/05 A2995 RMK A01 T01180049  RH  062%=      5-min Rain = 0
KWT1 081538Z 22011KT 12/05 A2995 RMK A01 T01200050  RH  063%=      5-min Rain = 0
KWT1 081539Z 22009KT 12/05 A2995 RMK A01 T01210051  RH  062%=      5-min Rain = 0
KWT1 081540Z 23011KT 12/05 A2995 RMK A01 T01220051  RH  062%=      5-min Rain = 0
KWT1 081541Z 23012KT 12/05 A2995 RMK A01 T01230050  RH  061%=      5-min Rain = 0
KWT1 081542Z 23012KT 12/05 A2995 RMK A01 T01240049  RH  060%=      5-min Rain = 0
KWT1 081543Z 22012KT 12/05 A2995 RMK A01 T01240049  RH  060%=      5-min Rain = 0
KWT1 081544Z 22011KT 12/05 A2995 RMK A01 T01240049  RH  060%=      5-min Rain = 0
KWT1 081545Z 23010KT 13/05 A2996 RMK A01 T01250049  RH  060%=      5-min Rain = 0
KWT1 081546Z 23011KT 13/05 A2996 RMK A01 T01260050  RH  060%=      5-min Rain = 0
KWT1 081547Z 23014KT 13/05 A2995 RMK A01 T01260048  RH  059%=      5-min Rain = 0
KWT1 081548Z 23014KT 12/05 A2996 RMK A01 T01240047  RH  059%=      5-min Rain = 0
KWT1 081549Z 23015KT 12/05 A2996 RMK A01 T01230047  RH  060%=      5-min Rain = 0
KWT1 081550Z 22012KT 12/05 A2996 RMK A01 T01220047  RH  060%=      5-min Rain = 0
KWT1 081551Z 22012KT 12/05 A2996 RMK A01 T01220048  RH  061%=      5-min Rain = 0
KWT1 081552Z 22014KT 12/05 A2996 RMK A01 T01230049  RH  060%=      5-min Rain = 0
KWT1 081553Z 23014KT 12/05 A2996 RMK A01 T01230048  RH  060%=      5-min Rain = 0
KWT1 081554Z 23013KT 12/05 A2996 RMK A01 T01230048  RH  060%=      5-min Rain = 0
KWT1 081555Z 22013KT 12/05 A2995 RMK A01 T01230049  RH  060%=      5-min Rain = 0
KWT1 081556Z 22014KT 12/05 A2996 RMK A01 T01240049  RH  060%=      5-min Rain = 0
KWT1 081557Z 23013KT 12/05 A2996 RMK A01 T01240049  RH  060%=      5-min Rain = 0
KWT1 081558Z 23012KT 12/05 A2996 RMK A01 T01240049  RH  060%=      5-min Rain = 0
KWT1 081559Z 23013KT 13/05 A2996 RMK A01 T01250050  RH  060%=      5-min Rain = 0
KWT1 081600Z 23013KT 13/05 A2996 RMK A01 T01260050  RH  060%=      5-min Rain = 0
KWT1 081601Z 22014KT 13/05 A2996 RMK A01 T01260050  RH  060%=      5-min Rain = 0
KWT1 081602Z 22014KT 13/05 A2995 RMK A01 T01260049  RH  059%=      5-min Rain = 0
KWT1 081603Z 22013KT 13/05 A2995 RMK A01 T01260050  RH  060%=      5-min Rain = 0
KWT1 081604Z 23013KT 13/05 A2995 RMK A01 T01270050  RH  059%=      5-min Rain = 0
KWT1 081605Z 23013KT 13/05 A2995 RMK A01 T01280051  RH  059%=      5-min Rain = 0
KWT1 081606Z 23011KT 13/05 A2995 RMK A01 T01290051  RH  059%=      5-min Rain = 0
KWT1 081607Z 22012KT 13/05 A2995 RMK A01 T01300052  RH  059%=      5-min Rain = 0
KWT1 081608Z 22012KT 13/05 A2995 RMK A01 T01320052  RH  059%=      5-min Rain = 0
KWT1 081609Z 22012KT 13/05 A2995 RMK A01 T01310052  RH  058%=      5-min Rain = 0
KWT1 081610Z 22012KT 13/05 A2995 RMK A01 T01310052  RH  058%=      5-min Rain = 0
KWT1 081611Z 23012KT 13/05 A2995 RMK A01 T01320051  RH  058%=      5-min Rain = 0
KWT1 081612Z 23013KT 13/05 A2995 RMK A01 T01330052  RH  058%=      5-min Rain = 0
KWT1 081613Z 23011KT 13/05 A2995 RMK A01 T01330051  RH  058%=      5-min Rain = 0
KWT1 081614Z 23009KT 13/05 A2996 RMK A01 T01330053  RH  058%=      5-min Rain = 0
KWT1 081615Z 22011KT 14/05 A2995 RMK A01 T01360054  RH  058%=      5-min Rain = 0
KWT1 081616Z 23009KT 14/05 A2996 RMK A01 T01370053  RH  057%=      5-min Rain = 0
KWT1 081617Z 23012KT 14/05 A2996 RMK A01 T01390054  RH  056%=      5-min Rain = 0
KWT1 081618Z 23012KT 14/05 A2996 RMK A01 T01390052  RH  056%=      5-min Rain = 0
KWT1 081619Z 23013KT 14/05 A2996 RMK A01 T01380052  RH  056%=      5-min Rain = 0
KWT1 081620Z 23011KT 14/05 A2996 RMK A01 T01390054  RH  056%=      5-min Rain = 0
KWT1 081621Z 22010KT 14/06 A2996 RMK A01 T01410055  RH  056%=      5-min Rain = 0
KWT1 081622Z 23013KT 14/05 A2996 RMK A01 T01430054  RH  055%=      5-min Rain = 0
KWT1 081623Z 23014KT 14/05 A2996 RMK A01 T01420052  RH  055%=      5-min Rain = 0
KWT1 081624Z 23011KT 14/05 A2996 RMK A01 T01420052  RH  055%=      5-min Rain = 0
KWT1 081625Z 23011KT 14/05 A2996 RMK A01 T01430053  RH  055%=      5-min Rain = 0
KWT1 081626Z 23011KT 15/05 A2996 RMK A01 T01450053  RH  054%=      5-min Rain = 0
KWT1 081627Z 23012KT 15/05 A2995 RMK A01 T01460054  RH  054%=      5-min Rain = 0
KWT1 081628Z 23013KT 15/05 A2995 RMK A01 T01470053  RH  053%=      5-min Rain = 0
KWT1 081629Z 23013KT 15/05 A2995 RMK A01 T01460051  RH  053%=      5-min Rain = 0
KWT1 081630Z 23013KT 15/05 A2995 RMK A01 T01460052  RH  053%=      5-min Rain = 0
KWT1 081631Z 23013KT 15/05 A2995 RMK A01 T01460051  RH  053%=      5-min Rain = 0
KWT1 081632Z 23012KT 15/05 A2995 RMK A01 T01460052  RH  053%=      5-min Rain = 0
KWT1 081633Z 23012KT 15/05 A2995 RMK A01 T01470052  RH  053%=      5-min Rain = 0
KWT1 081634Z 22012KT 15/05 A2995 RMK A01 T01490053  RH  053%=      5-min Rain = 0
KWT1 081635Z 23011KT 15/05 A2995 RMK A01 T01490053  RH  052%=      5-min Rain = 0
KWT1 081636Z 23010KT 15/05 A2995 RMK A01 T01500053  RH  052%=      5-min Rain = 0
KWT1 081637Z 23012KT 15/05 A2995 RMK A01 T01510054  RH  052%=      5-min Rain = 0
KWT1 081638Z 23013KT 15/05 A2995 RMK A01 T01520053  RH  052%=      5-min Rain = 0
KWT1 081639Z 23012KT 15/05 A2995 RMK A01 T01520052  RH  051%=      5-min Rain = 0
KWT1 081640Z 23010KT 15/05 A2995 RMK A01 T01520052  RH  051%=      5-min Rain = 0
KWT1 081641Z 23012KT 15/05 A2995 RMK A01 T01540054  RH  051%=      5-min Rain = 0
KWT1 081642Z 23011KT 16/05 A2995 RMK A01 T01560054  RH  051%=      5-min Rain = 0
KWT1 081643Z 23009KT 16/05 A2995 RMK A01 T01570054  RH  050%=      5-min Rain = 0
KWT1 081644Z 24012KT 16/06 A2994 RMK A01 T01600055  RH  050%=      5-min Rain = 0
KWT1 081645Z 23010KT 16/05 A2994 RMK A01 T01600053  RH  049%=      5-min Rain = 0
KWT1 081646Z 23013KT 16/05 A2994 RMK A01 T01590053  RH  049%=      5-min Rain = 0
KWT1 081647Z 23012KT 16/05 A2994 RMK A01 T01590052  RH  049%=      5-min Rain = 0
KWT1 081648Z 24011KT 16/05 A2994 RMK A01 T01590052  RH  049%=      5-min Rain = 0
KWT1 081649Z 23012KT 16/05 A2994 RMK A01 T01590052  RH  049%=      5-min Rain = 0
KWT1 081650Z 23010G15KT 16/05 A2994 RMK A01 T01610054  RH  049%=      5-min Rain = 0
KWT1 081651Z 23009KT 17/06 A2994 RMK A01 T01650055  RH  048%=      5-min Rain = 0
KWT1 081652Z 22013KT 17/05 A2994 RMK A01 T01670054  RH  047%=      5-min Rain = 0
KWT1 081653Z 22011KT 17/05 A2994 RMK A01 T01660052  RH  047%=      5-min Rain = 0
KWT1 081654Z 22010KT 17/05 A2994 RMK A01 T01650053  RH  047%=      5-min Rain = 0
KWT1 081655Z 22010KT 17/05 A2994 RMK A01 T01660054  RH  047%=      5-min Rain = 0
KWT1 081656Z 23008KT 17/06 A2994 RMK A01 T01680055  RH  047%=      5-min Rain = 0
KWT1 081657Z 22010KT 17/06 A2994 RMK A01 T01710056  RH  047%=      5-min Rain = 0
KWT1 081658Z 23011KT 17/05 A2994 RMK A01 T01710053  RH  046%=      5-min Rain = 0
KWT1 081659Z 23010KT 17/05 A2993 RMK A01 T01700053  RH  046%=      5-min Rain = 0
KWT1 081700Z 23011KT 17/05 A2993 RMK A01 T01720053  RH  046%=      5-min Rain = 0
KWT1 081701Z 23013KT 17/05 A2993 RMK A01 T01720051  RH  045%=      5-min Rain = 0
KWT1 081702Z 23013KT 17/05 A2993 RMK A01 T01700051  RH  045%=      5-min Rain = 0
KWT1 081703Z 23013KT 17/05 A2994 RMK A01 T01700052  RH  046%=      5-min Rain = 0
KWT1 081704Z 23010KT 17/05 A2993 RMK A01 T01700052  RH  046%=      5-min Rain = 0
KWT1 081705Z 22009KT 17/05 A2993 RMK A01 T01720054  RH  046%=      5-min Rain = 0
KWT1 081706Z 23009KT 18/06 A2994 RMK A01 T01750055  RH  045%=      5-min Rain = 0
KWT1 081707Z 24012KT 18/06 A2994 RMK A01 T01770055  RH  045%=      5-min Rain = 0
KWT1 081708Z 24013KT 18/05 A2994 RMK A01 T01770052  RH  044%=      5-min Rain = 0
KWT1 081709Z 25013KT 18/05 A2993 RMK A01 T01750051  RH  044%=      5-min Rain = 0
KWT1 081710Z 23012KT 17/05 A2993 RMK A01 T01740051  RH  044%=      5-min Rain = 0
KWT1 081711Z 23009KT 17/05 A2993 RMK A01 T01740053  RH  045%=      5-min Rain = 0
KWT1 081712Z 22010KT 18/05 A2993 RMK A01 T01760053  RH  044%=      5-min Rain = 0
KWT1 081713Z 24013KT 18/05 A2993 RMK A01 T01770053  RH  044%=      5-min Rain = 0
KWT1 081714Z 24011KT 18/05 A2993 RMK A01 T01760051  RH  044%=      5-min Rain = 0
KWT1 081715Z 24010KT 18/05 A2993 RMK A01 T01780053  RH  044%=      5-min Rain = 0
KWT1 081716Z 24010KT 18/05 A2993 RMK A01 T01790053  RH  043%=      5-min Rain = 0
KWT1 081717Z 23009KT 18/05 A2993 RMK A01 T01810054  RH  043%=      5-min Rain = 0
KWT1 081718Z 23008KT 18/06 A2993 RMK A01 T01830056  RH  043%=      5-min Rain = 0
KWT1 081719Z 23010G16KT 19/06 A2993 RMK A01 T01860056  RH  043%=      5-min Rain = 0
KWT1 081720Z 23014KT 19/05 A2993 RMK A01 T01860053  RH  042%=      5-min Rain = 0
KWT1 081721Z 23011KT 18/05 A2993 RMK A01 T01830052  RH  042%=      5-min Rain = 0
KWT1 081722Z 23013KT 18/05 A2993 RMK A01 T01830052  RH  042%=      5-min Rain = 0
KWT1 081723Z 23013KT 18/05 A2993 RMK A01 T01820051  RH  042%=      5-min Rain = 0
KWT1 081724Z 23012KT 18/05 A2993 RMK A01 T01810051  RH  043%=      5-min Rain = 0
KWT1 081725Z 23012KT 18/05 A2993 RMK A01 T01820053  RH  043%=      5-min Rain = 0
KWT1 081726Z 23012KT 18/05 A2993 RMK A01 T01830052  RH  042%=      5-min Rain = 0
KWT1 081727Z 22012KT 18/05 A2993 RMK A01 T01820052  RH  042%=      5-min Rain = 0
KWT1 081728Z 23013KT 18/05 A2992 RMK A01 T01830052  RH  042%=      5-min Rain = 0
KWT1 081729Z 24012KT 18/05 A2992 RMK A01 T01820051  RH  042%=      5-min Rain = 0
KWT1 081730Z 23010KT 18/05 A2992 RMK A01 T01820052  RH  042%=      5-min Rain = 0
KWT1 081731Z 23013KT 18/05 A2992 RMK A01 T01840053  RH  042%=      5-min Rain = 0
KWT1 081732Z 24010KT 18/05 A2992 RMK A01 T01840052  RH  042%=      5-min Rain = 0
KWT1 081733Z 23009KT 19/05 A2993 RMK A01 T01850053  RH  042%=      5-min Rain = 0
KWT1 081734Z 23011KT 19/05 A2993 RMK A01 T01870054  RH  042%=      5-min Rain = 0
KWT1 081735Z 22011KT 19/05 A2993 RMK A01 T01880053  RH  041%=      5-min Rain = 0
KWT1 081736Z 22012KT 19/05 A2993 RMK A01 T01880053  RH  041%=      5-min Rain = 0
KWT1 081737Z 23011KT 19/05 A2993 RMK A01 T01880053  RH  041%=      5-min Rain = 0
KWT1 081738Z 23012KT 19/05 A2993 RMK A01 T01880054  RH  041%=      5-min Rain = 0
KWT1 081739Z 23014KT 19/05 A2993 RMK A01 T01890054  RH  041%=      5-min Rain = 0
KWT1 081740Z 24012KT 19/05 A2993 RMK A01 T01900054  RH  041%=      5-min Rain = 0
KWT1 081741Z 23010KT 19/05 A2993 RMK A01 T01900054  RH  041%=      5-min Rain = 0
KWT1 081742Z 24009G14KT 19/06 A2993 RMK A01 T01920057  RH  041%=      5-min Rain = 0
KWT1 081743Z 25014KT 20/06 A2993 RMK A01 T01950056  RH  040%=      5-min Rain = 0
KWT1 081744Z 23011KT 19/05 A2992 RMK A01 T01940054  RH  040%=      5-min Rain = 0
KWT1 081745Z 22011KT 19/05 A2992 RMK A01 T01940054  RH  040%=      5-min Rain = 0
KWT1 081746Z 22013KT 20/05 A2992 RMK A01 T01950054  RH  040%=      5-min Rain = 0
KWT1 081747Z 21012KT 19/05 A2991 RMK A01 T01940053  RH  040%=      5-min Rain = 0
KWT1 081748Z 22014KT 19/05 A2991 RMK A01 T01940054  RH  040%=      5-min Rain = 0
KWT1 081749Z 21012KT 19/05 A2991 RMK A01 T01940053  RH  040%=      5-min Rain = 0
KWT1 081750Z 22012KT 19/05 A2991 RMK A01 T01930053  RH  040%=      5-min Rain = 0
KWT1 081751Z 22012KT 20/05 A2991 RMK A01 T01950054  RH  040%=      5-min Rain = 0
KWT1 081752Z 23011KT 20/05 A2991 RMK A01 T01950053  RH  039%=      5-min Rain = 0
KWT1 081753Z 23012KT 20/05 A2991 RMK A01 T01960054  RH  039%=      5-min Rain = 0
KWT1 081754Z 22013KT 20/05 A2991 RMK A01 T01970053  RH  039%=      5-min Rain = 0
KWT1 081755Z 23011KT 20/05 A2991 RMK A01 T01980053  RH  039%=      5-min Rain = 0
KWT1 081756Z 23011KT 20/05 A2991 RMK A01 T01990053  RH  038%=      5-min Rain = 0
KWT1 081757Z 23010KT 20/05 A2991 RMK A01 T01990053  RH  038%=      5-min Rain = 0
KWT1 081758Z 23012KT 20/06 A2991 RMK A01 T02010055  RH  038%=      5-min Rain = 0
KWT1 081759Z 23014KT 20/05 A2991 RMK A01 T02010053  RH  038%=      5-min Rain = 0
KWT1 081800Z 23014KT 20/05 A2991 RMK A01 T02020052  RH  037%=      5-min Rain = 0
KWT1 081801Z 23012KT 20/05 A2991 RMK A01 T02020052  RH  037%=      5-min Rain = 0
KWT1 081802Z 23014KT 20/05 A2991 RMK A01 T02030053  RH  037%=      5-min Rain = 0
KWT1 081803Z 24013KT 21/05 A2991 RMK A01 T02050053  RH  037%=      5-min Rain = 0
KWT1 081804Z 24015KT 21/06 A2991 RMK A01 T02070055  RH  037%=      5-min Rain = 0
KWT1 081805Z 24014KT 21/05 A2991 RMK A01 T02070053  RH  036%=      5-min Rain = 0
KWT1 081806Z 23013KT 21/05 A2991 RMK A01 T02060053  RH  037%=      5-min Rain = 0
KWT1 081807Z 22014KT 21/05 A2991 RMK A01 T02060053  RH  037%=      5-min Rain = 0
KWT1 081808Z 23015KT 21/05 A2991 RMK A01 T02060052  RH  037%=      5-min Rain = 0
KWT1 081809Z 23012KT 21/05 A2991 RMK A01 T02050052  RH  037%=      5-min Rain = 0
KWT1 081810Z 23014KT 21/05 A2991 RMK A01 T02050053  RH  037%=      5-min Rain = 0
KWT1 081811Z 23014KT 21/05 A2991 RMK A01 T02060053  RH  037%=      5-min Rain = 0
KWT1 081812Z 23014KT 21/05 A299 RMK A01 T02080054  RH  036%=      5-min Rain = 0
KWT1 081813Z 23014KT 21/05 A299 RMK A01 T02100054  RH  036%=      5-min Rain = 0
KWT1 081814Z 22011KT 21/06 A299 RMK A01 T02100055  RH  036%=      5-min Rain = 0
KWT1 081815Z 23014KT 21/06 A299 RMK A01 T02120055  RH  036%=      5-min Rain = 0
KWT1 081816Z 23015KT 21/05 A299 RMK A01 T02120054  RH  036%=      5-min Rain = 0
KWT1 081817Z 23013KT 21/05 A299 RMK A01 T02130054  RH  036%=      5-min Rain = 0
KWT1 081818Z 23017KT 21/05 A299 RMK A01 T02120054  RH  036%=      5-min Rain = 0
KWT1 081819Z 23016KT 21/05 A299 RMK A01 T02120054  RH  036%=      5-min Rain = 0
KWT1 081820Z 23017KT 21/05 A299 RMK A01 T02120054  RH  036%=      5-min Rain = 0
KWT1 081821Z 24013KT 21/05 A299 RMK A01 T02120054  RH  036%=      5-min Rain = 0
KWT1 081822Z 24015G20KT 22/06 A299 RMK A01 T02150055  RH  035%=      5-min Rain = 0
KWT1 081823Z 24017KT 22/05 A2989 RMK A01 T02160054  RH  035%=      5-min Rain = 0
KWT1 081824Z 25014KT 22/05 A2989 RMK A01 T02150053  RH  035%=      5-min Rain = 0
KWT1 081825Z 23012G17KT 22/06 A2989 RMK A01 T02160056  RH  035%=      5-min Rain = 0
KWT1 081826Z 24017KT 22/05 A2989 RMK A01 T02190054  RH  034%=      5-min Rain = 0
KWT1 081827Z 22016KT 22/05 A2989 RMK A01 T02180053  RH  034%=      5-min Rain = 0
KWT1 081828Z 24017G23KT 22/05 A2989 RMK A01 T02180053  RH  034%=      5-min Rain = 0
KWT1 081829Z 24018KT 22/05 A2989 RMK A01 T02180053  RH  034%=      5-min Rain = 0
KWT1 081830Z 24016KT 22/05 A2989 RMK A01 T02160050  RH  034%=      5-min Rain = 0
KWT1 081831Z 24016KT 22/05 A2989 RMK A01 T02150051  RH  034%=      5-min Rain = 0
KWT1 081832Z 23015KT 22/05 A2988 RMK A01 T02160050  RH  034%=      5-min Rain = 0
KWT1 081833Z 25014G19KT 22/05 A2988 RMK A01 T02170052  RH  034%=      5-min Rain = 0
KWT1 081834Z 25016KT 22/05 A2988 RMK A01 T02180052  RH  034%=      5-min Rain = 0
KWT1 081835Z 24017KT 22/05 A2988 RMK A01 T02180052  RH  034%=      5-min Rain = 0
KWT1 081836Z 25015KT 22/05 A2988 RMK A01 T02180052  RH  034%=      5-min Rain = 0
KWT1 081837Z 24014KT 22/05 A2988 RMK A01 T02180052  RH  034%=      5-min Rain = 0
KWT1 081838Z 23017KT 22/05 A2988 RMK A01 T02190053  RH  034%=      5-min Rain = 0
KWT1 081839Z 25017G22KT 22/05 A2988 RMK A01 T02200051  RH  033%=      5-min Rain = 0
KWT1 081840Z 24017KT 22/05 A2988 RMK A01 T02200051  RH  033%=      5-min Rain = 0
KWT1 081841Z 24017KT 22/05 A2987 RMK A01 T02200050  RH  033%=      5-min Rain = 0
KWT1 081842Z 24016KT 22/05 A2988 RMK A01 T02200050  RH  033%=      5-min Rain = 0
KWT1 081843Z 23013G18KT 22/05 A2987 RMK A01 T02210051  RH  033%=      5-min Rain = 0
KWT1 081844Z 23017KT 22/05 A2987 RMK A01 T02230052  RH  033%=      5-min Rain = 0
KWT1 081845Z 24017KT 22/05 A2987 RMK A01 T02240049  RH  032%=      5-min Rain = 0
KWT1 081846Z 25012G17KT 22/05 A2987 RMK A01 T02220051  RH  033%=      5-min Rain = 0
KWT1 081847Z 24015KT 23/05 A2987 RMK A01 T02250053  RH  033%=      5-min Rain = 0
KWT1 081848Z 23013KT 22/05 A2987 RMK A01 T02240052  RH  033%=      5-min Rain = 0
KWT1 081849Z 23016KT 22/05 A2987 RMK A01 T02220052  RH  033%=      5-min Rain = 0
KWT1 081850Z 24017KT 22/05 A2987 RMK A01 T02210052  RH  033%=      5-min Rain = 0
KWT1 081851Z 24016G21KT 22/05 A2988 RMK A01 T02200052  RH  033%=      5-min Rain = 0
KWT1 081852Z 25017KT 22/05 A2988 RMK A01 T02200052  RH  033%=      5-min Rain = 0
KWT1 081853Z 24017G23KT 22/05 A2988 RMK A01 T02200053  RH  034%=      5-min Rain = 0
KWT1 081854Z 25019KT 22/05 A2988 RMK A01 T02210052  RH  033%=      5-min Rain = 0
KWT1 081855Z 24021KT 22/05 A2988 RMK A01 T02200051  RH  033%=      5-min Rain = 0
KWT1 081856Z 24017KT 22/05 A2987 RMK A01 T02190050  RH  033%=      5-min Rain = 0
KWT1 081857Z 24016KT 22/05 A2987 RMK A01 T02190052  RH  034%=      5-min Rain = 0
KWT1 081858Z 24017KT 22/05 A2987 RMK A01 T02200051  RH  033%=      5-min Rain = 0
KWT1 081859Z 24017KT 22/05 A2987 RMK A01 T02200052  RH  033%=      5-min Rain = 0
KWT1 081900Z 24016KT 22/05 A2987 RMK A01 T02230053  RH  033%=      5-min Rain = 0
KWT1 081901Z 24017KT 23/05 A2987 RMK A01 T02260053  RH  033%=      5-min Rain = 0
KWT1 081902Z 24016G22KT 23/05 A2987 RMK A01 T02270052  RH  032%=      5-min Rain = 0
KWT1 081903Z 24017G22KT 23/05 A2987 RMK A01 T02270052  RH  032%=      5-min Rain = 0
KWT1 081904Z 25018G23KT 23/05 A2987 RMK A01 T02260051  RH  032%=      5-min Rain = 0
KWT1 081905Z 26017KT 23/05 A2987 RMK A01 T02250051  RH  032%=      5-min Rain = 0
KWT1 081906Z 25017G22KT 22/05 A2987 RMK A01 T02240051  RH  032%=      5-min Rain = 0
KWT1 081907Z 24018KT 22/05 A2987 RMK A01 T02230051  RH  033%=      5-min Rain = 0
KWT1 081908Z 25018KT 22/05 A2987 RMK A01 T02210050  RH  033%=      5-min Rain = 0
KWT1 081909Z 25019KT 22/05 A2987 RMK A01 T02210052  RH  033%=      5-min Rain = 0
KWT1 081910Z 25018KT 22/05 A2987 RMK A01 T02210052  RH  033%=      5-min Rain = 0
KWT1 081911Z 26017G23KT 22/05 A2987 RMK A01 T02210052  RH  033%=      5-min Rain = 0
KWT1 081912Z 25021KT 22/05 A2987 RMK A01 T02210051  RH  033%=      5-min Rain = 0
KWT1 081913Z 26020KT 22/05 A2987 RMK A01 T02190052  RH  034%=      5-min Rain = 0
KWT1 081914Z 25018KT 22/05 A2987 RMK A01 T02180052  RH  034%=      5-min Rain = 0
KWT1 081915Z 25016KT 22/05 A2986 RMK A01 T02180053  RH  034%=      5-min Rain = 0
KWT1 081916Z 25014KT 22/06 A2987 RMK A01 T02200056  RH  034%=      5-min Rain = 0
KWT1 081917Z 25017KT 22/06 A2986 RMK A01 T02230057  RH  034%=      5-min Rain = 0
KWT1 081918Z 26017KT 22/06 A2986 RMK A01 T02240055  RH  033%=      5-min Rain = 0
KWT1 081919Z 24013G18KT 22/05 A2986 RMK A01 T02210054  RH  034%=      5-min Rain = 0
KWT1 081920Z 25016KT 22/06 A2986 RMK A01 T02220056  RH  034%=      5-min Rain = 0
KWT1 081921Z 25014KT 22/06 A2986 RMK A01 T02210055  RH  034%=      5-min Rain = 0
KWT1 081922Z 25018G24KT 22/06 A2986 RMK A01 T02200055  RH  034%=      5-min Rain = 0
KWT1 081923Z 25020KT 22/05 A2986 RMK A01 T02170053  RH  034%=      5-min Rain = 0
KWT1 081924Z 25017KT 22/05 A2986 RMK A01 T02150053  RH  035%=      5-min Rain = 0
KWT1 081925Z 25018KT 22/05 A2986 RMK A01 T02150054  RH  035%=      5-min Rain = 0
KWT1 081926Z 25016KT 22/06 A2986 RMK A01 T02160055  RH  035%=      5-min Rain = 0
KWT1 081927Z 25015KT 22/06 A2986 RMK A01 T02180056  RH  035%=      5-min Rain = 0
KWT1 081928Z 24017KT 22/06 A2986 RMK A01 T02200056  RH  035%=      5-min Rain = 0
KWT1 081929Z 25019KT 22/06 A2986 RMK A01 T02210056  RH  034%=      5-min Rain = 0
KWT1 081930Z 25017KT 22/06 A2985 RMK A01 T02200055  RH  034%=      5-min Rain = 0
KWT1 081931Z 25017KT 22/05 A2985 RMK A01 T02190054  RH  034%=      5-min Rain = 0
KWT1 081932Z 25016KT 22/06 A2985 RMK A01 T02190055  RH  034%=      5-min Rain = 0
KWT1 081933Z 25013KT 22/06 A2985 RMK A01 T02200057  RH  035%=      5-min Rain = 0
KWT1 081934Z 24015KT 22/06 A2985 RMK A01 T02230058  RH  034%=      5-min Rain = 0
KWT1 081935Z 25011KT 22/06 A2985 RMK A01 T02240057  RH  034%=      5-min Rain = 0
KWT1 081936Z 25015KT 23/06 A2985 RMK A01 T02260058  RH  034%=      5-min Rain = 0
KWT1 081937Z 24016KT 23/06 A2985 RMK A01 T02250056  RH  033%=      5-min Rain = 0
KWT1 081938Z 24017KT 23/06 A2985 RMK A01 T02260056  RH  033%=      5-min Rain = 0
KWT1 081939Z 25015G20KT 23/06 A2985 RMK A01 T02260056  RH  033%=      5-min Rain = 0
KWT1 081940Z 25016KT 23/06 A2985 RMK A01 T02250057  RH  033%=      5-min Rain = 0
KWT1 081941Z 25014KT 23/06 A2985 RMK A01 T02260057  RH  033%=      5-min Rain = 0
KWT1 081942Z 25014KT 23/06 A2985 RMK A01 T02280058  RH  033%=      5-min Rain = 0
KWT1 081943Z 25015G20KT 23/06 A2985 RMK A01 T02300058  RH  033%=      5-min Rain = 0
KWT1 081944Z 25018KT 23/06 A2985 RMK A01 T02310057  RH  032%=      5-min Rain = 0
KWT1 081945Z 26015KT 23/06 A2985 RMK A01 T02300056  RH  032%=      5-min Rain = 0
KWT1 081946Z 27016KT 23/06 A2985 RMK A01 T02300057  RH  033%=      5-min Rain = 0
KWT1 081947Z 25016KT 23/06 A2985 RMK A01 T02310056  RH  032%=      5-min Rain = 0
KWT1 081948Z 25017KT 23/06 A2984 RMK A01 T02300055  RH  032%=      5-min Rain = 0
KWT1 081949Z 25016KT 23/06 A2985 RMK A01 T02290055  RH  032%=      5-min Rain = 0
KWT1 081950Z 26016KT 23/06 A2985 RMK A01 T02290056  RH  033%=      5-min Rain = 0
KWT1 081951Z 24014KT 23/06 A2985 RMK A01 T02300055  RH  032%=      5-min Rain = 0
KWT1 081952Z 25014KT 23/06 A2985 RMK A01 T02310055  RH  032%=      5-min Rain = 0
KWT1 081953Z 25015KT 23/06 A2985 RMK A01 T02320055  RH  032%=      5-min Rain = 0
KWT1 081954Z 26013KT 23/06 A2985 RMK A01 T02320055  RH  032%=      5-min Rain = 0
KWT1 081955Z 26013KT 23/06 A2985 RMK A01 T02320056  RH  032%=      5-min Rain = 0
KWT1 081956Z 26014KT 23/06 A2985 RMK A01 T02330056  RH  032%=      5-min Rain = 0
KWT1 081957Z 26016KT 23/06 A2985 RMK A01 T02320055  RH  032%=      5-min Rain = 0
KWT1 081958Z 27016G21KT 23/05 A2985 RMK A01 T02310054  RH  032%=      5-min Rain = 0
KWT1 081959Z 25019KT 23/05 A2985 RMK A01 T02290054  RH  032%=      5-min Rain = 0
KWT1 082000Z 25019KT 23/05 A2985 RMK A01 T02290053  RH  032%=      5-min Rain = 0
KWT1 082001Z 25016KT 23/05 A2985 RMK A01 T02270053  RH  032%=      5-min Rain = 0
KWT1 082002Z 26014KT 23/05 A2985 RMK A01 T02270053  RH  032%=      5-min Rain = 0
KWT1 082003Z 25017KT 23/05 A2985 RMK A01 T02270054  RH  032%=      5-min Rain = 0
KWT1 082004Z 25016G21KT 23/05 A2984 RMK A01 T02270053  RH  032%=      5-min Rain = 0
KWT1 082005Z 26017KT 23/05 A2984 RMK A01 T02270054  RH  033%=      5-min Rain = 0
KWT1 082006Z 25016KT 23/05 A2984 RMK A01 T02270054  RH  032%=      5-min Rain = 0
KWT1 082007Z 25013KT 23/05 A2984 RMK A01 T02270054  RH  033%=      5-min Rain = 0
KWT1 082008Z 25012KT 23/06 A2984 RMK A01 T02280055  RH  033%=      5-min Rain = 0
KWT1 082009Z 25012KT 23/06 A2984 RMK A01 T02290056  RH  033%=      5-min Rain = 0
KWT1 082010Z 25015KT 23/06 A2984 RMK A01 T02300056  RH  032%=      5-min Rain = 0
KWT1 082011Z 24015KT 23/05 A2984 RMK A01 T02300054  RH  032%=      5-min Rain = 0
KWT1 082012Z 25015G20KT 23/06 A2984 RMK A01 T02300055  RH  032%=      5-min Rain = 0
KWT1 082013Z 25017KT 23/06 A2983 RMK A01 T02310055  RH  032%=      5-min Rain = 0
KWT1 082014Z 25019KT 23/05 A2983 RMK A01 T02310054  RH  032%=      5-min Rain = 0
KWT1 082015Z 26016KT 23/05 A2984 RMK A01 T02310053  RH  032%=      5-min Rain = 0
KWT1 082016Z 25016KT 23/05 A2984 RMK A01 T02310054  RH  032%=      5-min Rain = 0
KWT1 082017Z 24011KT 23/06 A2984 RMK A01 T02320055  RH  032%=      5-min Rain = 0
KWT1 082018Z 24011G18KT 23/06 A2984 RMK A01 T02340056  RH  032%=      5-min Rain = 0
KWT1 082019Z 24016KT 23/05 A2983 RMK A01 T02340054  RH  031%=      5-min Rain = 0
KWT1 082020Z 24016KT 23/05 A2984 RMK A01 T02310052  RH  031%=      5-min Rain = 0
KWT1 082021Z 24015KT 23/05 A2984 RMK A01 T02300052  RH  032%=      5-min Rain = 0
KWT1 082022Z 24014KT 23/05 A2983 RMK A01 T02290053  RH  032%=      5-min Rain = 0
KWT1 082023Z 24014G19KT 23/05 A2983 RMK A01 T02290053  RH  032%=      5-min Rain = 0
KWT1 082024Z 24013KT 23/05 A2983 RMK A01 T02300054  RH  032%=      5-min Rain = 0
KWT1 082025Z 25016G21KT 23/05 A2983 RMK A01 T02300053  RH  032%=      5-min Rain = 0
KWT1 082026Z 25015KT 23/05 A2983 RMK A01 T02300053  RH  032%=      5-min Rain = 0
KWT1 082027Z 24012KT 23/05 A2983 RMK A01 T02300054  RH  032%=      5-min Rain = 0
KWT1 082028Z 25014KT 23/06 A2983 RMK A01 T02320055  RH  032%=      5-min Rain = 0
KWT1 082029Z 25014KT 23/05 A2983 RMK A01 T02320054  RH  032%=      5-min Rain = 0
KWT1 082030Z 25014KT 23/05 A2983 RMK A01 T02320054  RH  032%=      5-min Rain = 0
KWT1 082031Z 24015G20KT 23/05 A2983 RMK A01 T02310054  RH  032%=      5-min Rain = 0
KWT1 082032Z 25015KT 23/05 A2983 RMK A01 T02300054  RH  032%=      5-min Rain = 0
KWT1 082033Z 25016KT 23/05 A2983 RMK A01 T02300053  RH  032%=      5-min Rain = 0
KWT1 082034Z 24013KT 23/05 A2983 RMK A01 T02290053  RH  032%=      5-min Rain = 0
KWT1 082035Z 25018KT 23/05 A2983 RMK A01 T02300053  RH  032%=      5-min Rain = 0
KWT1 082036Z 25017KT 23/05 A2983 RMK A01 T02300052  RH  031%=      5-min Rain = 0
KWT1 082037Z 25018KT 23/05 A2983 RMK A01 T02300051  RH  031%=      5-min Rain = 0
KWT1 082038Z 26016KT 23/05 A2983 RMK A01 T02290051  RH  031%=      5-min Rain = 0
KWT1 082039Z 26016KT 23/05 A2983 RMK A01 T02290052  RH  032%=      5-min Rain = 0
KWT1 082040Z 25013KT 23/05 A2983 RMK A01 T02300053  RH  032%=      5-min Rain = 0
KWT1 082041Z 25013KT 23/05 A2983 RMK A01 T02300052  RH  031%=      5-min Rain = 0
KWT1 082042Z 25014KT 23/05 A2983 RMK A01 T02310053  RH  031%=      5-min Rain = 0
KWT1 082043Z 25015KT 23/05 A2983 RMK A01 T02310053  RH  031%=      5-min Rain = 0
KWT1 082044Z 26013KT 23/05 A2983 RMK A01 T02310053  RH  031%=      5-min Rain = 0
KWT1 082045Z 25016KT 23/05 A2983 RMK A01 T02300052  RH  032%=      5-min Rain = 0
KWT1 082046Z 25015KT 23/05 A2983 RMK A01 T02290052  RH  032%=      5-min Rain = 0
KWT1 082047Z 25015KT 23/05 A2983 RMK A01 T02280052  RH  032%=      5-min Rain = 0
KWT1 082048Z 24012KT 23/05 A2983 RMK A01 T02270051  RH  032%=      5-min Rain = 0
KWT1 082049Z 24015KT 23/05 A2983 RMK A01 T02270051  RH  032%=      5-min Rain = 0
KWT1 082050Z 24012G17KT 23/05 A2983 RMK A01 T02270051  RH  032%=      5-min Rain = 0
KWT1 082051Z 25013KT 23/05 A2983 RMK A01 T02270051  RH  032%=      5-min Rain = 0
KWT1 082052Z 25012KT 23/05 A2983 RMK A01 T02260051  RH  032%=      5-min Rain = 0
KWT1 082053Z 25011KT 23/05 A2983 RMK A01 T02260052  RH  032%=      5-min Rain = 0
KWT1 082054Z 23011KT 23/05 A2983 RMK A01 T02260052  RH  032%=      5-min Rain = 0
KWT1 082055Z 25010KT 23/05 A2983 RMK A01 T02270053  RH  032%=      5-min Rain = 0
KWT1 082056Z 25012KT 23/05 A2983 RMK A01 T02280052  RH  032%=      5-min Rain = 0
KWT1 082057Z 25013KT 23/05 A2983 RMK A01 T02280052  RH  032%=      5-min Rain = 0
KWT1 082058Z 25016KT 23/05 A2983 RMK A01 T02270051  RH  032%=      5-min Rain = 0
KWT1 082059Z 25012KT 23/05 A2983 RMK A01 T02270051  RH  032%=      5-min Rain = 0
KWT1 082100Z 25015KT 23/05 A2983 RMK A01 T02280052  RH  032%=      5-min Rain = 0
KWT1 082101Z 24014KT 23/05 A2983 RMK A01 T02280051  RH  032%=      5-min Rain = 0
KWT1 082102Z 24011KT 23/05 A2983 RMK A01 T02280052  RH  032%=      5-min Rain = 0
KWT1 082103Z 24013KT 23/05 A2983 RMK A01 T02290052  RH  032%=      5-min Rain = 0
KWT1 082104Z 25012KT 23/05 A2983 RMK A01 T02290052  RH  032%=      5-min Rain = 0
KWT1 082105Z 25013KT 23/05 A2983 RMK A01 T02290052  RH  032%=      5-min Rain = 0
KWT1 082106Z 24014KT 23/05 A2983 RMK A01 T02290052  RH  032%=      5-min Rain = 0
KWT1 082107Z 24016KT 23/05 A2982 RMK A01 T02290052  RH  032%=      5-min Rain = 0
KWT1 082108Z 25016KT 23/05 A2982 RMK A01 T02280051  RH  032%=      5-min Rain = 0
KWT1 082109Z 25015KT 23/05 A2982 RMK A01 T02280051  RH  032%=      5-min Rain = 0
KWT1 082110Z 25016KT 23/05 A2982 RMK A01 T02280051  RH  032%=      5-min Rain = 0
KWT1 082111Z 25013KT 23/05 A2982 RMK A01 T02280051  RH  032%=      5-min Rain = 0
KWT1 082112Z 25014KT 23/05 A2982 RMK A01 T02290052  RH  032%=      5-min Rain = 0
KWT1 082113Z 25015KT 23/05 A2982 RMK A01 T02290052  RH  032%=      5-min Rain = 0
KWT1 082114Z 25015KT 23/05 A2982 RMK A01 T02290052  RH  032%=      5-min Rain = 0
KWT1 082115Z 24015KT 23/05 A2982 RMK A01 T02290052  RH  032%=      5-min Rain = 0
KWT1 082116Z 25015KT 23/05 A2982 RMK A01 T02280052  RH  032%=      5-min Rain = 0
KWT1 082117Z 24017KT 23/05 A2982 RMK A01 T02280052  RH  032%=      5-min Rain = 0
KWT1 082118Z 25012KT 23/05 A2983 RMK A01 T02270052  RH  032%=      5-min Rain = 0
KWT1 082119Z 24014KT 23/05 A2983 RMK A01 T02260053  RH  032%=      5-min Rain = 0
KWT1 082120Z 25012KT 23/05 A2982 RMK A01 T02260053  RH  032%=      5-min Rain = 0
KWT1 082121Z 25011KT 23/05 A2982 RMK A01 T02250054  RH  033%=      5-min Rain = 0
KWT1 082122Z 25010KT 23/05 A2982 RMK A01 T02250054  RH  033%=      5-min Rain = 0
KWT1 082123Z 25010KT 23/06 A2982 RMK A01 T02250055  RH  033%=      5-min Rain = 0
KWT1 082124Z 25011KT 23/06 A2982 RMK A01 T02260055  RH  033%=      5-min Rain = 0
KWT1 082125Z 26011KT 23/05 A2982 RMK A01 T02260054  RH  033%=      5-min Rain = 0
KWT1 082126Z 27011KT 23/06 A2982 RMK A01 T02270056  RH  033%=      5-min Rain = 0
KWT1 082127Z 25010KT 23/06 A2982 RMK A01 T02270055  RH  033%=      5-min Rain = 0
KWT1 082128Z 26011KT 23/06 A2982 RMK A01 T02260056  RH  033%=      5-min Rain = 0
KWT1 082129Z 26011KT 23/06 A2982 RMK A01 T02260055  RH  033%=      5-min Rain = 0
KWT1 082130Z 26012KT 23/06 A2982 RMK A01 T02250055  RH  033%=      5-min Rain = 0
KWT1 082131Z 26011KT 22/06 A2982 RMK A01 T02240055  RH  033%=      5-min Rain = 0
KWT1 082132Z 27012KT 22/06 A2982 RMK A01 T02240056  RH  033%=      5-min Rain = 0
KWT1 082133Z 26013KT 22/05 A2982 RMK A01 T02240054  RH  033%=      5-min Rain = 0
KWT1 082134Z 26012KT 22/05 A2982 RMK A01 T02230054  RH  033%=      5-min Rain = 0
KWT1 082135Z 26014KT 22/05 A2982 RMK A01 T02230054  RH  033%=      5-min Rain = 0
KWT1 082136Z 26011KT 22/05 A2982 RMK A01 T02220054  RH  033%=      5-min Rain = 0
KWT1 082137Z 26010KT 22/05 A2982 RMK A01 T02220054  RH  033%=      5-min Rain = 0
KWT1 082138Z 26011KT 22/05 A2982 RMK A01 T02230054  RH  033%=      5-min Rain = 0
KWT1 082139Z 25012KT 22/05 A2982 RMK A01 T02230054  RH  033%=      5-min Rain = 0
KWT1 082140Z 25012KT 22/05 A2982 RMK A01 T02230054  RH  033%=      5-min Rain = 0
KWT1 082141Z 26014KT 22/05 A2982 RMK A01 T02230054  RH  033%=      5-min Rain = 0
KWT1 082142Z 25012KT 22/05 A2982 RMK A01 T02220054  RH  033%=      5-min Rain = 0
KWT1 082143Z 26013KT 22/05 A2982 RMK A01 T02220054  RH  033%=      5-min Rain = 0
KWT1 082144Z 26011KT 22/05 A2982 RMK A01 T02220054  RH  034%=      5-min Rain = 0
KWT1 082145Z 26011KT 22/06 A2982 RMK A01 T02210055  RH  034%=      5-min Rain = 0
KWT1 082146Z 26011KT 22/06 A2982 RMK A01 T02220055  RH  034%=      5-min Rain = 0
KWT1 082147Z 25010KT 22/05 A2982 RMK A01 T02210054  RH  034%=      5-min Rain = 0
KWT1 082148Z 26012KT 22/05 A2982 RMK A01 T02210054  RH  034%=      5-min Rain = 0
KWT1 082149Z 25013KT 22/05 A2982 RMK A01 T02210054  RH  034%=      5-min Rain = 0
KWT1 082150Z 25013KT 22/05 A2982 RMK A01 T02210054  RH  034%=      5-min Rain = 0
KWT1 082151Z 26011KT 22/06 A2982 RMK A01 T02210055  RH  034%=      5-min Rain = 0
KWT1 082152Z 26011KT 22/06 A2982 RMK A01 T02210055  RH  034%=      5-min Rain = 0
KWT1 082153Z 26011KT 22/06 A2982 RMK A01 T02210055  RH  034%=      5-min Rain = 0
KWT1 082154Z 26011KT 22/06 A2982 RMK A01 T02200055  RH  034%=      5-min Rain = 0
KWT1 082155Z 27007KT 22/06 A2982 RMK A01 T02210056  RH  034%=      5-min Rain = 0
KWT1 082156Z 26010KT 22/06 A2982 RMK A01 T02200056  RH  034%=      5-min Rain = 0
KWT1 082157Z 26010KT 22/06 A2982 RMK A01 T02200055  RH  034%=      5-min Rain = 0
KWT1 082158Z 26008KT 22/06 A2982 RMK A01 T02200056  RH  034%=      5-min Rain = 0
KWT1 082159Z 26009KT 22/06 A2982 RMK A01 T02200056  RH  034%=      5-min Rain = 0
KWT1 082200Z 26009KT 22/06 A2982 RMK A01 T02200056  RH  035%=      5-min Rain = 0
KWT1 082201Z 26009KT 22/06 A2982 RMK A01 T02190056  RH  035%=      5-min Rain = 0
KWT1 082202Z 26010KT 22/06 A2982 RMK A01 T02190056  RH  035%=      5-min Rain = 0
KWT1 082203Z 26011KT 22/06 A2982 RMK A01 T02190055  RH  034%=      5-min Rain = 0
KWT1 082204Z 26011KT 22/06 A2982 RMK A01 T02190055  RH  035%=      5-min Rain = 0
KWT1 082205Z 26011KT 22/06 A2982 RMK A01 T02190055  RH  035%=      5-min Rain = 0
KWT1 082206Z 26011KT 22/06 A2982 RMK A01 T02180055  RH  035%=      5-min Rain = 0
KWT1 082207Z 25010KT 22/06 A2982 RMK A01 T02190056  RH  035%=      5-min Rain = 0
KWT1 082208Z 25011KT 22/06 A2982 RMK A01 T02190055  RH  034%=      5-min Rain = 0
KWT1 082209Z 25011KT 22/06 A2982 RMK A01 T02190055  RH  034%=      5-min Rain = 0
KWT1 082210Z 25012KT 22/05 A2982 RMK A01 T02190054  RH  034%=      5-min Rain = 0
KWT1 082211Z 25009KT 22/05 A2982 RMK A01 T02190054  RH  034%=      5-min Rain = 0
KWT1 082212Z 25011KT 22/06 A2982 RMK A01 T02180055  RH  034%=      5-min Rain = 0
KWT1 082213Z 25013KT 22/05 A2982 RMK A01 T02180053  RH  034%=      5-min Rain = 0
KWT1 082214Z 25012KT 22/05 A2982 RMK A01 T02180053  RH  034%=      5-min Rain = 0
KWT1 082215Z 25012KT 22/05 A2982 RMK A01 T02180052  RH  034%=      5-min Rain = 0
KWT1 082216Z 25013KT 22/05 A2982 RMK A01 T02180052  RH  034%=      5-min Rain = 0
KWT1 082217Z 25010KT 22/05 A2982 RMK A01 T02180052  RH  034%=      5-min Rain = 0
KWT1 082218Z 25010KT 22/05 A2983 RMK A01 T02180053  RH  034%=      5-min Rain = 0
KWT1 082219Z 26011KT 22/05 A2983 RMK A01 T02170053  RH  034%=      5-min Rain = 0
KWT1 082220Z 25010KT 22/05 A2983 RMK A01 T02170053  RH  034%=      5-min Rain = 0
KWT1 082221Z 25009KT 22/05 A2983 RMK A01 T02170054  RH  035%=      5-min Rain = 0
KWT1 082222Z 25010KT 22/05 A2983 RMK A01 T02160053  RH  035%=      5-min Rain = 0
KWT1 082223Z 25009KT 22/05 A2983 RMK A01 T02160054  RH  035%=      5-min Rain = 0
KWT1 082224Z 24007KT 22/05 A2983 RMK A01 T02160054  RH  035%=      5-min Rain = 0
KWT1 082225Z 24008KT 22/05 A2983 RMK A01 T02160054  RH  035%=      5-min Rain = 0
KWT1 082226Z 24007KT 22/05 A2982 RMK A01 T02160054  RH  035%=      5-min Rain = 0
KWT1 082227Z 25008KT 22/05 A2982 RMK A01 T02160054  RH  035%=      5-min Rain = 0
KWT1 082228Z 24007KT 22/05 A2982 RMK A01 T02150054  RH  035%=      5-min Rain = 0
KWT1 082229Z 24006KT 22/06 A2982 RMK A01 T02150055  RH  035%=      5-min Rain = 0
KWT1 082230Z 24007KT 22/05 A2982 RMK A01 T02150054  RH  035%=      5-min Rain = 0
KWT1 082231Z 23007KT 22/05 A2982 RMK A01 T02150054  RH  035%=      5-min Rain = 0
KWT1 082232Z 23006KT 22/05 A2982 RMK A01 T02150054  RH  035%=      5-min Rain = 0
KWT1 082233Z 23007KT 21/06 A2982 RMK A01 T02140055  RH  035%=      5-min Rain = 0
KWT1 082234Z 24007KT 21/06 A2982 RMK A01 T02140055  RH  035%=      5-min Rain = 0
KWT1 082235Z 23006KT 21/05 A2982 RMK A01 T02140054  RH  035%=      5-min Rain = 0
KWT1 082236Z 23006KT 21/06 A2981 RMK A01 T02130055  RH  035%=      5-min Rain = 0
KWT1 082237Z 22006KT 21/05 A2981 RMK A01 T02130054  RH  036%=      5-min Rain = 0
KWT1 082238Z 22006KT 21/05 A2981 RMK A01 T02130054  RH  036%=      5-min Rain = 0
KWT1 082239Z 22007KT 21/05 A2981 RMK A01 T02130054  RH  036%=      5-min Rain = 0
KWT1 082240Z 23006KT 21/05 A2981 RMK A01 T02130054  RH  036%=      5-min Rain = 0
KWT1 082241Z 23007KT 21/06 A2981 RMK A01 T02120055  RH  036%=      5-min Rain = 0
KWT1 082242Z 23006KT 21/05 A2981 RMK A01 T02110054  RH  036%=      5-min Rain = 0
KWT1 082243Z 23007KT 21/06 A2981 RMK A01 T02110055  RH  036%=      5-min Rain = 0
KWT1 082244Z 23006KT 21/06 A2981 RMK A01 T02110055  RH  036%=      5-min Rain = 0
KWT1 082245Z 23006KT 21/06 A2981 RMK A01 T02100055  RH  036%=      5-min Rain = 0
KWT1 082246Z 23006KT 21/06 A2981 RMK A01 T02100055  RH  036%=      5-min Rain = 0
KWT1 082247Z 23007KT 21/06 A2981 RMK A01 T02090055  RH  036%=      5-min Rain = 0
KWT1 082248Z 23006KT 21/06 A2981 RMK A01 T02090055  RH  036%=      5-min Rain = 0
KWT1 082249Z 24006KT 21/06 A2981 RMK A01 T02090055  RH  037%=      5-min Rain = 0
KWT1 082250Z 24007KT 21/06 A2982 RMK A01 T02090055  RH  037%=      5-min Rain = 0
KWT1 082251Z 24007KT 21/06 A2982 RMK A01 T02090055  RH  037%=      5-min Rain = 0
KWT1 082252Z 24007KT 21/06 A2982 RMK A01 T02090055  RH  037%=      5-min Rain = 0
KWT1 082253Z 24006KT 21/06 A2982 RMK A01 T02090055  RH  037%=      5-min Rain = 0
KWT1 082254Z 24006KT 21/06 A2982 RMK A01 T02080056  RH  037%=      5-min Rain = 0
KWT1 082255Z 24007KT 21/06 A2982 RMK A01 T02080055  RH  037%=      5-min Rain = 0
KWT1 082256Z 24007KT 21/06 A2982 RMK A01 T02080056  RH  037%=      5-min Rain = 0
KWT1 082257Z 24006KT 21/06 A2982 RMK A01 T02080056  RH  037%=      5-min Rain = 0
KWT1 082258Z 24006KT 21/06 A2982 RMK A01 T02070055  RH  037%=      5-min Rain = 0
KWT1 082259Z 23005KT 21/06 A2982 RMK A01 T02070055  RH  037%=      5-min Rain = 0
KWT1 082300Z 23005KT 21/06 A2982 RMK A01 T02070055  RH  037%=      5-min Rain = 0
KWT1 082301Z 23006KT 21/06 A2982 RMK A01 T02060055  RH  037%=      5-min Rain = 0
KWT1 082302Z 24006KT 21/06 A2982 RMK A01 T02070055  RH  037%=      5-min Rain = 0
KWT1 082303Z 24006KT 21/06 A2982 RMK A01 T02060055  RH  037%=      5-min Rain = 0
KWT1 082304Z 24005KT 21/06 A2982 RMK A01 T02060055  RH  037%=      5-min Rain = 0
KWT1 082305Z 24005KT 21/06 A2982 RMK A01 T02050056  RH  038%=      5-min Rain = 0
KWT1 082306Z 25005KT 20/06 A2982 RMK A01 T02040055  RH  038%=      5-min Rain = 0
KWT1 082307Z 24005KT 20/06 A2982 RMK A01 T02040055  RH  038%=      5-min Rain = 0
KWT1 082308Z 24005KT 20/06 A2982 RMK A01 T02030055  RH  038%=      5-min Rain = 0
KWT1 082309Z 24005KT 20/06 A2982 RMK A01 T02030056  RH  038%=      5-min Rain = 0
KWT1 082310Z 24005KT 20/06 A2981 RMK A01 T02020055  RH  038%=      5-min Rain = 0
KWT1 082311Z 23005KT 20/06 A2981 RMK A01 T02010055  RH  038%=      5-min Rain = 0
KWT1 082312Z 23005KT 20/06 A2981 RMK A01 T02010055  RH  039%=      5-min Rain = 0
KWT1 082313Z 23005KT 20/06 A2982 RMK A01 T02000055  RH  039%=      5-min Rain = 0
KWT1 082314Z 23005KT 20/06 A2982 RMK A01 T02000055  RH  039%=      5-min Rain = 0
KWT1 082315Z 23005KT 20/06 A2982 RMK A01 T01990055  RH  039%=      5-min Rain = 0
KWT1 082316Z 22005KT 20/06 A2981 RMK A01 T01980055  RH  039%=      5-min Rain = 0
KWT1 082317Z 22005KT 20/06 A2981 RMK A01 T01980055  RH  039%=      5-min Rain = 0
KWT1 082318Z 22005KT 20/06 A2981 RMK A01 T01970055  RH  039%=      5-min Rain = 0
KWT1 082319Z 22005KT 20/06 A2981 RMK A01 T01960055  RH  040%=      5-min Rain = 0
KWT1 082320Z 22005KT 20/06 A2982 RMK A01 T01950055  RH  040%=      5-min Rain = 0
KWT1 082321Z 22005KT 19/06 A2982 RMK A01 T01940055  RH  040%=      5-min Rain = 0
KWT1 082322Z 22005KT 19/06 A2982 RMK A01 T01930056  RH  041%=      5-min Rain = 0
KWT1 082323Z 22005KT 19/06 A2982 RMK A01 T01920056  RH  041%=      5-min Rain = 0
KWT1 082324Z 22005KT 19/06 A2982 RMK A01 T01910056  RH  041%=      5-min Rain = 0
KWT1 082325Z 22005KT 19/06 A2982 RMK A01 T01910056  RH  041%=      5-min Rain = 0
KWT1 082326Z 22005KT 19/06 A2982 RMK A01 T01910056  RH  041%=      5-min Rain = 0
KWT1 082327Z 22005KT 19/06 A2982 RMK A01 T01910056  RH  041%=      5-min Rain = 0
KWT1 082328Z 22005KT 19/06 A2982 RMK A01 T01910056  RH  041%=      5-min Rain = 0
KWT1 082329Z 23005KT 19/06 A2982 RMK A01 T01910056  RH  041%=      5-min Rain = 0
KWT1 082330Z 23005KT 19/06 A2982 RMK A01 T01910056  RH  041%=      5-min Rain = 0
KWT1 082331Z 22005KT 19/06 A2982 RMK A01 T01910056  RH  041%=      5-min Rain = 0
KWT1 082332Z 22005KT 19/06 A2981 RMK A01 T01910056  RH  041%=      5-min Rain = 0
KWT1 082333Z 22005KT 19/06 A2981 RMK A01 T01910055  RH  041%=      5-min Rain = 0
KWT1 082334Z 22005KT 19/06 A2981 RMK A01 T01910055  RH  041%=      5-min Rain = 0
KWT1 082335Z 23005KT 19/06 A2981 RMK A01 T01910056  RH  041%=      5-min Rain = 0
KWT1 082336Z 23005KT 19/06 A2981 RMK A01 T01900055  RH  041%=      5-min Rain = 0
KWT1 082337Z 23006KT 19/06 A2981 RMK A01 T01900055  RH  041%=      5-min Rain = 0
KWT1 082338Z 23006KT 19/06 A2981 RMK A01 T01900055  RH  041%=      5-min Rain = 0
KWT1 082339Z 23005KT 19/06 A2981 RMK A01 T01890055  RH  041%=      5-min Rain = 0
KWT1 082340Z 23005KT 19/06 A2981 RMK A01 T01890055  RH  041%=      5-min Rain = 0
KWT1 082341Z 23005KT 19/06 A2981 RMK A01 T01890056  RH  041%=      5-min Rain = 0
KWT1 082342Z 23006KT 19/06 A2981 RMK A01 T01890055  RH  041%=      5-min Rain = 0
KWT1 082343Z 23006KT 19/06 A2981 RMK A01 T01890055  RH  041%=      5-min Rain = 0
KWT1 082344Z 23006KT 19/06 A2981 RMK A01 T01880055  RH  042%=      5-min Rain = 0
KWT1 082345Z 23006KT 19/06 A2981 RMK A01 T01880055  RH  042%=      5-min Rain = 0
KWT1 082346Z 23006KT 19/06 A2981 RMK A01 T01870055  RH  042%=      5-min Rain = 0
KWT1 082347Z 23006KT 19/06 A2981 RMK A01 T01870055  RH  042%=      5-min Rain = 0
KWT1 082348Z 22006KT 19/06 A2981 RMK A01 T01870055  RH  042%=      5-min Rain = 0
KWT1 082349Z 22006KT 19/06 A2981 RMK A01 T01860055  RH  042%=      5-min Rain = 0
KWT1 082350Z 22006KT 19/06 A2981 RMK A01 T01860055  RH  042%=      5-min Rain = 0
KWT1 082351Z 21005KT 19/05 A2981 RMK A01 T01850054  RH  042%=      5-min Rain = 0
KWT1 082352Z 21005KT 18/05 A2981 RMK A01 T01830054  RH  043%=      5-min Rain = 0
KWT1 082353Z 20005KT 18/05 A2981 RMK A01 T01810054  RH  043%=      5-min Rain = 0
KWT1 082354Z 19005KT 18/05 A2981 RMK A01 T01780054  RH  044%=      5-min Rain = 0
KWT1 082355Z 18005KT 18/05 A2981 RMK A01 T01760054  RH  044%=      5-min Rain = 0
KWT1 082356Z 19006KT 18/05 A2981 RMK A01 T01750054  RH  045%=      5-min Rain = 0
KWT1 082357Z 18006KT 17/05 A2981 RMK A01 T01730054  RH  045%=      5-min Rain = 0
KWT1 082358Z 18006KT 17/05 A2981 RMK A01 T01720054  RH  046%=      5-min Rain = 0
KWT1 082359Z 18006KT 17/05 A2981 RMK A01 T01710054  RH  046%=      5-min Rain = 0
KWT1 090000Z 18006KT 17/05 A2981 RMK A01 T01700054  RH  046%=      5-min Rain = 0
KWT1 090001Z 18006KT 17/05 A2981 RMK A01 T01700054  RH  047%=      5-min Rain = 0
KWT1 090002Z 19006KT 17/05 A2981 RMK A01 T01690054  RH  047%=      5-min Rain = 0
KWT1 090003Z 19006KT 17/06 A2982 RMK A01 T01690055  RH  047%=      5-min Rain = 0
KWT1 090004Z 20006KT 17/06 A2982 RMK A01 T01690055  RH  047%=      5-min Rain = 0
KWT1 090005Z 20006KT 17/06 A2982 RMK A01 T01700056  RH  047%=      5-min Rain = 0
KWT1 090006Z 20006KT 17/06 A2981 RMK A01 T01710055  RH  046%=      5-min Rain = 0
KWT1 090007Z 20006KT 17/06 A2981 RMK A01 T01720055  RH  046%=      5-min Rain = 0
KWT1 090008Z 20007KT 17/06 A2981 RMK A01 T01720056  RH  046%=      5-min Rain = 0
KWT1 090009Z 20007KT 17/06 A2981 RMK A01 T01710055  RH  046%=      5-min Rain = 0
KWT1 090010Z 19007KT 17/06 A2981 RMK A01 T01700055  RH  047%=      5-min Rain = 0
KWT1 090011Z 19007KT 17/06 A2981 RMK A01 T01690055  RH  047%=      5-min Rain = 0
KWT1 090012Z 20007KT 17/06 A2981 RMK A01 T01680055  RH  047%=      5-min Rain = 0
KWT1 090013Z 20007KT 17/06 A2981 RMK A01 T01680055  RH  047%=      5-min Rain = 0
KWT1 090014Z 20007KT 17/06 A2981 RMK A01 T01670056  RH  048%=      5-min Rain = 0
KWT1 090015Z 20007KT 17/06 A2981 RMK A01 T01670056  RH  048%=      5-min Rain = 0
KWT1 090016Z 19007KT 17/06 A2981 RMK A01 T01660056  RH  048%=      5-min Rain = 0
KWT1 090017Z 19007KT 17/06 A2981 RMK A01 T01660056  RH  048%=      5-min Rain = 0
KWT1 090018Z 20007KT 17/06 A2981 RMK A01 T01670056  RH  048%=      5-min Rain = 0
KWT1 090019Z 19007KT 17/06 A2981 RMK A01 T01680056  RH  048%=      5-min Rain = 0
KWT1 090020Z 19007KT 17/06 A298 RMK A01 T01690056  RH  047%=      5-min Rain = 0
KWT1 090021Z 18007KT 17/06 A298 RMK A01 T01690056  RH  047%=      5-min Rain = 0
KWT1 090022Z 19007KT 17/06 A298 RMK A01 T01690056  RH  047%=      5-min Rain = 0
KWT1 090023Z 19008KT 17/06 A298 RMK A01 T01680056  RH  047%=      5-min Rain = 0
KWT1 090024Z 20008KT 17/06 A2981 RMK A01 T01680056  RH  048%=      5-min Rain = 0
KWT1 090025Z 20008KT 17/06 A2981 RMK A01 T01670056  RH  048%=      5-min Rain = 0
KWT1 090026Z 20008KT 17/06 A2981 RMK A01 T01670056  RH  048%=      5-min Rain = 0
KWT1 090027Z 20008KT 17/06 A2981 RMK A01 T01660056  RH  048%=      5-min Rain = 0
KWT1 090028Z 20008KT 17/06 A2981 RMK A01 T01660057  RH  048%=      5-min Rain = 0
KWT1 090029Z 20008KT 17/06 A2981 RMK A01 T01660057  RH  048%=      5-min Rain = 0
KWT1 090030Z 20008KT 17/06 A2981 RMK A01 T01660057  RH  049%=      5-min Rain = 0
KWT1 090031Z 20008KT 17/06 A2981 RMK A01 T01650057  RH  049%=      5-min Rain = 0
KWT1 090032Z 20008KT 17/06 A2981 RMK A01 T01650058  RH  049%=      5-min Rain = 0
KWT1 090033Z 21008KT 17/06 A2981 RMK A01 T01650058  RH  049%=      5-min Rain = 0
KWT1 090034Z 21007KT 17/06 A2981 RMK A01 T01650058  RH  049%=      5-min Rain = 0
KWT1 090035Z 21008KT 17/06 A2981 RMK A01 T01660058  RH  049%=      5-min Rain = 0
KWT1 090036Z 21008KT 17/06 A2981 RMK A01 T01660058  RH  049%=      5-min Rain = 0
KWT1 090037Z 21008KT 17/06 A2981 RMK A01 T01660058  RH  049%=      5-min Rain = 0
KWT1 090038Z 22008KT 17/06 A2981 RMK A01 T01670058  RH  048%=      5-min Rain = 0
KWT1 090039Z 21007KT 17/06 A2981 RMK A01 T01670058  RH  048%=      5-min Rain = 0
KWT1 090040Z 21008KT 17/06 A2981 RMK A01 T01670057  RH  048%=      5-min Rain = 0
KWT1 090041Z 22008KT 17/06 A2981 RMK A01 T01680057  RH  048%=      5-min Rain = 0
KWT1 090042Z 22008KT 17/06 A2981 RMK A01 T01680057  RH  048%=      5-min Rain = 0
KWT1 090043Z 22008KT 17/06 A2981 RMK A01 T01670057  RH  048%=      5-min Rain = 0
KWT1 090044Z 22008KT 17/06 A2981 RMK A01 T01670057  RH  048%=      5-min Rain = 0
KWT1 090045Z 22008KT 17/06 A2981 RMK A01 T01670057  RH  048%=      5-min Rain = 0
KWT1 090046Z 22008KT 17/06 A2981 RMK A01 T01670057  RH  048%=      5-min Rain = 0
KWT1 090047Z 22008KT 17/06 A2981 RMK A01 T01680057  RH  048%=      5-min Rain = 0
KWT1 090048Z 22008KT 17/06 A2981 RMK A01 T01680056  RH  048%=      5-min Rain = 0
KWT1 090049Z 22008KT 17/06 A2981 RMK A01 T01700057  RH  047%=      5-min Rain = 0
KWT1 090050Z 22009KT 17/06 A2981 RMK A01 T01700057  RH  047%=      5-min Rain = 0
KWT1 090051Z 22008KT 17/06 A2981 RMK A01 T01710057  RH  047%=      5-min Rain = 0
KWT1 090052Z 22008KT 17/06 A2981 RMK A01 T01710057  RH  047%=      5-min Rain = 0
KWT1 090053Z 22008KT 17/06 A2981 RMK A01 T01720057  RH  047%=      5-min Rain = 0
KWT1 090054Z 22008KT 17/06 A2981 RMK A01 T01730057  RH  046%=      5-min Rain = 0
KWT1 090055Z 22008KT 17/06 A2981 RMK A01 T01740057  RH  046%=      5-min Rain = 0
KWT1 090056Z 22008KT 18/06 A2981 RMK A01 T01750057  RH  046%=      5-min Rain = 0
KWT1 090057Z 22008KT 18/06 A2981 RMK A01 T01750057  RH  046%=      5-min Rain = 0
KWT1 090058Z 22008KT 18/06 A2981 RMK A01 T01760057  RH  046%=      5-min Rain = 0
KWT1 090059Z 21008KT 18/06 A2981 RMK A01 T01750057  RH  046%=      5-min Rain = 0
KWT1 090100Z 21008KT 18/06 A2981 RMK A01 T01760058  RH  046%=      5-min Rain = 0
KWT1 090101Z 21007KT 18/06 A2981 RMK A01 T01760058  RH  046%=      5-min Rain = 0
KWT1 090102Z 21008KT 18/06 A2981 RMK A01 T01760059  RH  046%=      5-min Rain = 0
KWT1 090103Z 20008KT 18/06 A2981 RMK A01 T01750058  RH  046%=      5-min Rain = 0
KWT1 090104Z 21009KT 18/06 A2981 RMK A01 T01750058  RH  046%=      5-min Rain = 0
KWT1 090105Z 20008KT 18/06 A2981 RMK A01 T01760058  RH  046%=      5-min Rain = 0
KWT1 090106Z 20008KT 18/06 A298 RMK A01 T01760058  RH  046%=      5-min Rain = 0
KWT1 090107Z 20008KT 18/06 A298 RMK A01 T01750058  RH  046%=      5-min Rain = 0
KWT1 090108Z 20008KT 17/06 A298 RMK A01 T01740058  RH  046%=      5-min Rain = 0
KWT1 090109Z 19008KT 17/06 A298 RMK A01 T01720058  RH  047%=      5-min Rain = 0
KWT1 090110Z 19008KT 17/06 A298 RMK A01 T01710058  RH  047%=      5-min Rain = 0
KWT1 090111Z 19008KT 17/06 A298 RMK A01 T01710058  RH  047%=      5-min Rain = 0
KWT1 090112Z 20009KT 17/06 A2981 RMK A01 T01700058  RH  047%=      5-min Rain = 0
KWT1 090113Z 20008KT 17/06 A2981 RMK A01 T01700058  RH  047%=      5-min Rain = 0
KWT1 090114Z 20009KT 17/06 A2981 RMK A01 T01710058  RH  047%=      5-min Rain = 0
KWT1 090115Z 20008KT 17/06 A2981 RMK A01 T01720058  RH  047%=      5-min Rain = 0
KWT1 090116Z 20008KT 17/06 A2981 RMK A01 T01730058  RH  047%=      5-min Rain = 0
KWT1 090117Z 21008KT 17/06 A2981 RMK A01 T01740059  RH  047%=      5-min Rain = 0
KWT1 090118Z 21009KT 18/06 A2981 RMK A01 T01750059  RH  046%=      5-min Rain = 0
KWT1 090119Z 21009KT 18/06 A2981 RMK A01 T01760059  RH  046%=      5-min Rain = 0
KWT1 090120Z 22009KT 18/06 A2981 RMK A01 T01770058  RH  046%=      5-min Rain = 0
KWT1 090121Z 21009KT 18/06 A2981 RMK A01 T01780058  RH  045%=      5-min Rain = 0
KWT1 090122Z 22010KT 18/06 A2981 RMK A01 T01800058  RH  045%=      5-min Rain = 0
KWT1 090123Z 22010KT 18/06 A2981 RMK A01 T01820058  RH  044%=      5-min Rain = 0
KWT1 090124Z 22010KT 18/06 A2981 RMK A01 T01830058  RH  044%=      5-min Rain = 0
KWT1 090125Z 22009KT 18/06 A2981 RMK A01 T01840058  RH  043%=      5-min Rain = 0
KWT1 090126Z 22009KT 19/06 A2981 RMK A01 T01850058  RH  043%=      5-min Rain = 0
KWT1 090127Z 22008KT 19/06 A2981 RMK A01 T01850057  RH  043%=      5-min Rain = 0
KWT1 090128Z 22009KT 19/06 A2981 RMK A01 T01850058  RH  043%=      5-min Rain = 0
KWT1 090129Z 23009KT 18/06 A2981 RMK A01 T01840057  RH  043%=      5-min Rain = 0
KWT1 090130Z 23010KT 19/06 A2981 RMK A01 T01850058  RH  043%=      5-min Rain = 0
KWT1 090131Z 23009KT 19/06 A2981 RMK A01 T01860058  RH  043%=      5-min Rain = 0
KWT1 090132Z 23009KT 19/06 A2981 RMK A01 T01860057  RH  043%=      5-min Rain = 0
KWT1 090133Z 23010KT 19/06 A2981 RMK A01 T01870058  RH  043%=      5-min Rain = 0
KWT1 090134Z 23010KT 19/06 A2981 RMK A01 T01870058  RH  043%=      5-min Rain = 0
KWT1 090135Z 23009KT 19/06 A2981 RMK A01 T01870058  RH  043%=      5-min Rain = 0
KWT1 090136Z 23009KT 19/06 A2981 RMK A01 T01860058  RH  043%=      5-min Rain = 0
KWT1 090137Z 23009KT 19/06 A2981 RMK A01 T01850058  RH  043%=      5-min Rain = 0
KWT1 090138Z 23010KT 18/06 A2982 RMK A01 T01840058  RH  043%=      5-min Rain = 0
KWT1 090139Z 23010KT 18/06 A2982 RMK A01 T01840058  RH  044%=      5-min Rain = 0
KWT1 090140Z 23010KT 18/06 A2982 RMK A01 T01830058  RH  044%=      5-min Rain = 0
KWT1 090141Z 23009KT 18/06 A2982 RMK A01 T01830058  RH  044%=      5-min Rain = 0
KWT1 090142Z 23009KT 18/06 A2982 RMK A01 T01820058  RH  044%=      5-min Rain = 0
KWT1 090143Z 23009KT 18/06 A2982 RMK A01 T01820058  RH  044%=      5-min Rain = 0
KWT1 090144Z 22009KT 18/06 A2982 RMK A01 T01810058  RH  044%=      5-min Rain = 0
KWT1 090145Z 22008KT 18/06 A2982 RMK A01 T01810058  RH  044%=      5-min Rain = 0
KWT1 090146Z 23010KT 18/06 A2982 RMK A01 T01800058  RH  045%=      5-min Rain = 0
KWT1 090147Z 23010KT 18/06 A2982 RMK A01 T01800058  RH  045%=      5-min Rain = 0
KWT1 090148Z 23010KT 18/06 A2982 RMK A01 T01800059  RH  045%=      5-min Rain = 0
KWT1 090149Z 23011KT 18/06 A2982 RMK A01 T01800059  RH  045%=      5-min Rain = 0
KWT1 090150Z 23010KT 18/06 A2982 RMK A01 T01800059  RH  045%=      5-min Rain = 0
KWT1 090151Z 23010KT 18/06 A2982 RMK A01 T01800058  RH  045%=      5-min Rain = 0
KWT1 090152Z 23011KT 18/06 A2982 RMK A01 T01810059  RH  045%=      5-min Rain = 0
KWT1 090153Z 23011KT 18/06 A2982 RMK A01 T01810059  RH  045%=      5-min Rain = 0
KWT1 090154Z 23010KT 18/06 A2982 RMK A01 T01810059  RH  045%=      5-min Rain = 0
KWT1 090155Z 23010KT 18/06 A2982 RMK A01 T01810059  RH  045%=      5-min Rain = 0
KWT1 090156Z 23011KT 18/06 A2982 RMK A01 T01810059  RH  045%=      5-min Rain = 0
KWT1 090157Z 23009KT 18/06 A2982 RMK A01 T01810059  RH  045%=      5-min Rain = 0
KWT1 090158Z 23010KT 18/06 A2982 RMK A01 T01810060  RH  045%=      5-min Rain = 0
KWT1 090159Z 22010KT 18/06 A2982 RMK A01 T01800060  RH  045%=      5-min Rain = 0
KWT1 090200Z 23009KT 18/06 A2982 RMK A01 T01800060  RH  045%=      5-min Rain = 0
KWT1 090201Z 23009KT 18/06 A2983 RMK A01 T01800060  RH  045%=      5-min Rain = 0
KWT1 090202Z 23008KT 18/06 A2983 RMK A01 T01790060  RH  045%=      5-min Rain = 0
KWT1 090203Z 22009KT 18/06 A2983 RMK A01 T01780060  RH  046%=      5-min Rain = 0
KWT1 090204Z 23009KT 18/06 A2983 RMK A01 T01780060  RH  046%=      5-min Rain = 0
KWT1 090205Z 23009KT 18/06 A2983 RMK A01 T01780060  RH  046%=      5-min Rain = 0
KWT1 090206Z 23010KT 18/06 A2983 RMK A01 T01790061  RH  046%=      5-min Rain = 0
KWT1 090207Z 23010KT 18/06 A2983 RMK A01 T01790061  RH  046%=      5-min Rain = 0
KWT1 090208Z 23009KT 18/06 A2983 RMK A01 T01800061  RH  046%=      5-min Rain = 0
KWT1 090209Z 23010KT 18/06 A2983 RMK A01 T01800061  RH  046%=      5-min Rain = 0
KWT1 090210Z 24010KT 18/06 A2983 RMK A01 T01800061  RH  046%=      5-min Rain = 0
KWT1 090211Z 24009KT 18/06 A2983 RMK A01 T01810062  RH  046%=      5-min Rain = 0
KWT1 090212Z 23011KT 18/06 A2983 RMK A01 T01820062  RH  045%=      5-min Rain = 0
KWT1 090213Z 24009KT 18/06 A2983 RMK A01 T01820062  RH  045%=      5-min Rain = 0
KWT1 090214Z 24010KT 18/06 A2983 RMK A01 T01830062  RH  045%=      5-min Rain = 0
KWT1 090215Z 24010KT 18/06 A2983 RMK A01 T01830062  RH  045%=      5-min Rain = 0
KWT1 090216Z 24009KT 18/06 A2983 RMK A01 T01830062  RH  045%=      5-min Rain = 0
KWT1 090217Z 24009KT 18/06 A2983 RMK A01 T01840062  RH  045%=      5-min Rain = 0
KWT1 090218Z 24009KT 19/06 A2983 RMK A01 T01850063  RH  045%=      5-min Rain = 0
KWT1 090219Z 24009KT 19/06 A2983 RMK A01 T01860063  RH  045%=      5-min Rain = 0
KWT1 090220Z 24009KT 19/06 A2983 RMK A01 T01860062  RH  044%=      5-min Rain = 0
KWT1 090221Z 24009KT 19/06 A2983 RMK A01 T01860063  RH  045%=      5-min Rain = 0
KWT1 090222Z 24009KT 19/06 A2983 RMK A01 T01860063  RH  045%=      5-min Rain = 0
KWT1 090223Z 24010KT 19/06 A2983 RMK A01 T01860063  RH  045%=      5-min Rain = 0
KWT1 090224Z 24009KT 19/06 A2983 RMK A01 T01860063  RH  045%=      5-min Rain = 0
KWT1 090225Z 24009KT 19/06 A2983 RMK A01 T01860063  RH  045%=      5-min Rain = 0
KWT1 090226Z 24009KT 19/06 A2983 RMK A01 T01860063  RH  045%=      5-min Rain = 0
KWT1 090227Z 24009KT 19/06 A2982 RMK A01 T01860064  RH  045%=      5-min Rain = 0
KWT1 090228Z 24009KT 19/06 A2982 RMK A01 T01860063  RH  045%=      5-min Rain = 0
KWT1 090229Z 24009KT 19/06 A2982 RMK A01 T01860063  RH  045%=      5-min Rain = 0
KWT1 090230Z 24009KT 19/06 A2982 RMK A01 T01860064  RH  045%=      5-min Rain = 0
KWT1 090231Z 24010KT 19/06 A2983 RMK A01 T01850063  RH  045%=      5-min Rain = 0
KWT1 090232Z 24010KT 19/06 A2983 RMK A01 T01850064  RH  045%=      5-min Rain = 0
KWT1 090233Z 24008KT 19/06 A2983 RMK A01 T01850064  RH  045%=      5-min Rain = 0
KWT1 090234Z 24009KT 19/06 A2983 RMK A01 T01850064  RH  045%=      5-min Rain = 0
KWT1 090235Z 23008KT 19/06 A2983 RMK A01 T01850064  RH  045%=      5-min Rain = 0
KWT1 090236Z 24008KT 18/06 A2983 RMK A01 T01840064  RH  045%=      5-min Rain = 0
KWT1 090237Z 24009KT 18/06 A2983 RMK A01 T01830064  RH  046%=      5-min Rain = 0
KWT1 090238Z 23009KT 18/06 A2983 RMK A01 T01820064  RH  046%=      5-min Rain = 0
KWT1 090239Z 24008KT 18/06 A2983 RMK A01 T01820064  RH  046%=      5-min Rain = 0
KWT1 090240Z 23008KT 18/06 A2983 RMK A01 T01820064  RH  046%=      5-min Rain = 0
KWT1 090241Z 24008KT 18/06 A2983 RMK A01 T01810064  RH  046%=      5-min Rain = 0
KWT1 090242Z 23008KT 18/06 A2983 RMK A01 T01800063  RH  046%=      5-min Rain = 0
KWT1 090243Z 24008KT 18/06 A2983 RMK A01 T01800064  RH  047%=      5-min Rain = 0
KWT1 090244Z 24008KT 18/06 A2983 RMK A01 T01790064  RH  047%=      5-min Rain = 0
KWT1 090245Z 24008KT 18/06 A2983 RMK A01 T01790064  RH  047%=      5-min Rain = 0
KWT1 090246Z 24008KT 18/06 A2983 RMK A01 T01790064  RH  047%=      5-min Rain = 0
KWT1 090247Z 24008KT 18/06 A2983 RMK A01 T01790064  RH  047%=      5-min Rain = 0
KWT1 090248Z 23008KT 18/06 A2983 RMK A01 T01790064  RH  047%=      5-min Rain = 0
KWT1 090249Z 23008KT 18/06 A2983 RMK A01 T01790064  RH  047%=      5-min Rain = 0
KWT1 090250Z 23007KT 18/06 A2983 RMK A01 T01790064  RH  047%=      5-min Rain = 0
KWT1 090251Z 23007KT 18/06 A2983 RMK A01 T01790064  RH  047%=      5-min Rain = 0
KWT1 090252Z 23006KT 18/06 A2983 RMK A01 T01780064  RH  047%=      5-min Rain = 0
KWT1 090253Z 23006KT 18/06 A2983 RMK A01 T01760064  RH  048%=      5-min Rain = 0
KWT1 090254Z 22006KT 18/06 A2983 RMK A01 T01760064  RH  048%=      5-min Rain = 0
KWT1 090255Z 22006KT 18/06 A2983 RMK A01 T01750064  RH  048%=      5-min Rain = 0
KWT1 090256Z 22006KT 17/06 A2983 RMK A01 T01740064  RH  048%=      5-min Rain = 0
KWT1 090257Z 22007KT 17/06 A2983 RMK A01 T01730064  RH  049%=      5-min Rain = 0
KWT1 090258Z 22006KT 17/06 A2983 RMK A01 T01730064  RH  049%=      5-min Rain = 0
KWT1 090259Z 22006KT 17/06 A2983 RMK A01 T01720064  RH  049%=      5-min Rain = 0
KWT1 090300Z 22007KT 17/06 A2983 RMK A01 T01710064  RH  049%=      5-min Rain = 0
KWT1 090301Z 22007KT 17/06 A2983 RMK A01 T01700064  RH  050%=      5-min Rain = 0
KWT1 090302Z 22007KT 17/06 A2983 RMK A01 T01680063  RH  050%=      5-min Rain = 0
KWT1 090303Z 22006KT 17/06 A2983 RMK A01 T01670063  RH  050%=      5-min Rain = 0
KWT1 090304Z 22007KT 17/06 A2983 RMK A01 T01660063  RH  051%=      5-min Rain = 0
KWT1 090305Z 22007KT 17/06 A2983 RMK A01 T01650063  RH  051%=      5-min Rain = 0
KWT1 090306Z 22007KT 17/06 A2983 RMK A01 T01650063  RH  051%=      5-min Rain = 0
KWT1 090307Z 22007KT 16/06 A2983 RMK A01 T01630063  RH  051%=      5-min Rain = 0
KWT1 090308Z 22008KT 16/06 A2983 RMK A01 T01630063  RH  052%=      5-min Rain = 0
KWT1 090309Z 22008KT 16/06 A2983 RMK A01 T01630063  RH  052%=      5-min Rain = 0
KWT1 090310Z 22008KT 16/06 A2983 RMK A01 T01630063  RH  052%=      5-min Rain = 0
KWT1 090311Z 22008KT 16/06 A2983 RMK A01 T01620063  RH  052%=      5-min Rain = 0
KWT1 090312Z 22008KT 16/06 A2983 RMK A01 T01620063  RH  052%=      5-min Rain = 0
KWT1 090313Z 22008KT 16/06 A2983 RMK A01 T01610063  RH  052%=      5-min Rain = 0
KWT1 090314Z 22008KT 16/06 A2983 RMK A01 T01610063  RH  052%=      5-min Rain = 0
KWT1 090315Z 22009KT 16/06 A2983 RMK A01 T01610063  RH  052%=      5-min Rain = 0
KWT1 090316Z 22009KT 16/06 A2983 RMK A01 T01600063  RH  052%=      5-min Rain = 0
KWT1 090317Z 21009KT 16/06 A2983 RMK A01 T01600063  RH  053%=      5-min Rain = 0
KWT1 090318Z 21009KT 16/06 A2983 RMK A01 T01600064  RH  053%=      5-min Rain = 0
KWT1 090319Z 21009KT 16/06 A2983 RMK A01 T01600064  RH  053%=      5-min Rain = 0
KWT1 090320Z 21010KT 16/06 A2983 RMK A01 T01590064  RH  053%=      5-min Rain = 0
KWT1 090321Z 22010KT 16/06 A2983 RMK A01 T01590064  RH  053%=      5-min Rain = 0
KWT1 090322Z 22009KT 16/07 A2983 RMK A01 T01590065  RH  053%=      5-min Rain = 0
KWT1 090323Z 22009KT 16/07 A2983 RMK A01 T01590065  RH  053%=      5-min Rain = 0
KWT1 090324Z 22009KT 16/06 A2982 RMK A01 T01590064  RH  053%=      5-min Rain = 0
KWT1 090325Z 22009KT 16/07 A2982 RMK A01 T01600065  RH  053%=      5-min Rain = 0
KWT1 090326Z 21009KT 16/07 A2982 RMK A01 T01610065  RH  053%=      5-min Rain = 0
KWT1 090327Z 21008KT 16/07 A2982 RMK A01 T01620065  RH  053%=      5-min Rain = 0
KWT1 090328Z 21008KT 16/07 A2982 RMK A01 T01620066  RH  053%=      5-min Rain = 0
KWT1 090329Z 22008KT 16/07 A2982 RMK A01 T01620066  RH  053%=      5-min Rain = 0
KWT1 090330Z 22008KT 16/07 A2983 RMK A01 T01620066  RH  053%=      5-min Rain = 0
KWT1 090331Z 22009KT 16/07 A2983 RMK A01 T01620066  RH  053%=      5-min Rain = 0
KWT1 090332Z 22008KT 16/07 A2983 RMK A01 T01630066  RH  053%=      5-min Rain = 0
KWT1 090333Z 22007KT 16/07 A2983 RMK A01 T01630066  RH  053%=      5-min Rain = 0
KWT1 090334Z 22007KT 16/07 A2983 RMK A01 T01620066  RH  053%=      5-min Rain = 0
KWT1 090335Z 22007KT 16/07 A2983 RMK A01 T01610066  RH  053%=      5-min Rain = 0
KWT1 090336Z 22007KT 16/07 A2983 RMK A01 T01610066  RH  053%=      5-min Rain = 0
KWT1 090337Z 22006KT 16/07 A2983 RMK A01 T01590065  RH  054%=      5-min Rain = 0
KWT1 090338Z 22006KT 16/07 A2983 RMK A01 T01580065  RH  054%=      5-min Rain = 0
KWT1 090339Z 22006KT 16/07 A2983 RMK A01 T01570065  RH  054%=      5-min Rain = 0
KWT1 090340Z 22006KT 16/07 A2983 RMK A01 T01560065  RH  055%=      5-min Rain = 0
KWT1 090341Z 21006KT 16/07 A2983 RMK A01 T01550065  RH  055%=      5-min Rain = 0
KWT1 090342Z 21007KT 15/06 A2983 RMK A01 T01540064  RH  055%=      5-min Rain = 0
KWT1 090343Z 21007KT 15/06 A2983 RMK A01 T01520064  RH  055%=      5-min Rain = 0
KWT1 090344Z 22007KT 15/06 A2983 RMK A01 T01520064  RH  056%=      5-min Rain = 0
KWT1 090345Z 21007KT 15/06 A2983 RMK A01 T01510064  RH  056%=      5-min Rain = 0
KWT1 090346Z 21007KT 15/06 A2983 RMK A01 T01510064  RH  056%=      5-min Rain = 0
KWT1 090347Z 21008KT 15/06 A2982 RMK A01 T01500063  RH  056%=      5-min Rain = 0
KWT1 090348Z 21007KT 15/06 A2983 RMK A01 T01490063  RH  056%=      5-min Rain = 0
KWT1 090349Z 22007KT 15/06 A2983 RMK A01 T01480063  RH  056%=      5-min Rain = 0
KWT1 090350Z 22007KT 15/06 A2983 RMK A01 T01480063  RH  057%=      5-min Rain = 0
KWT1 090351Z 23007KT 15/06 A2983 RMK A01 T01470062  RH  057%=      5-min Rain = 0
KWT1 090352Z 23007KT 15/06 A2983 RMK A01 T01470062  RH  057%=      5-min Rain = 0
KWT1 090353Z 23007KT 15/06 A2983 RMK A01 T01470063  RH  057%=      5-min Rain = 0
KWT1 090354Z 24008KT 15/06 A2983 RMK A01 T01470063  RH  057%=      5-min Rain = 0
KWT1 090355Z 24008KT 15/06 A2983 RMK A01 T01480064  RH  057%=      5-min Rain = 0
KWT1 090356Z 25007KT 15/06 A2983 RMK A01 T01490064  RH  056%=      5-min Rain = 0
KWT1 090357Z 25007KT 15/06 A2983 RMK A01 T01490063  RH  056%=      5-min Rain = 0
KWT1 090358Z 25007KT 15/06 A2983 RMK A01 T01480063  RH  057%=      5-min Rain = 0
KWT1 090359Z 25007KT 15/06 A2982 RMK A01 T01470063  RH  057%=      5-min Rain = 0
KWT1 090400Z 25007KT 15/06 A2982 RMK A01 T01460063  RH  057%=      5-min Rain = 0
KWT1 090401Z 26007KT 15/06 A2983 RMK A01 T01450063  RH  058%=      5-min Rain = 0
KWT1 090402Z 26007KT 15/06 A2983 RMK A01 T01450064  RH  058%=      5-min Rain = 0
KWT1 090403Z 26007KT 15/06 A2983 RMK A01 T01450064  RH  058%=      5-min Rain = 0
KWT1 090404Z 26007KT 14/06 A2983 RMK A01 T01440064  RH  058%=      5-min Rain = 0
KWT1 090405Z 25007KT 15/06 A2983 RMK A01 T01450064  RH  058%=      5-min Rain = 0
KWT1 090406Z 26007KT 15/07 A2983 RMK A01 T01450065  RH  059%=      5-min Rain = 0
KWT1 090407Z 26006KT 15/07 A2983 RMK A01 T01450065  RH  058%=      5-min Rain = 0
KWT1 090408Z 26007KT 15/07 A2983 RMK A01 T01460065  RH  058%=      5-min Rain = 0
KWT1 090409Z 26007KT 15/07 A2983 RMK A01 T01460066  RH  058%=      5-min Rain = 0
KWT1 090410Z 26007KT 15/07 A2983 RMK A01 T01460066  RH  058%=      5-min Rain = 0
KWT1 090411Z 26007KT 15/07 A2983 RMK A01 T01470066  RH  058%=      5-min Rain = 0
KWT1 090412Z 27007KT 15/07 A2983 RMK A01 T01470066  RH  058%=      5-min Rain = 0
KWT1 090413Z 27007KT 15/07 A2983 RMK A01 T01470066  RH  058%=      5-min Rain = 0
KWT1 090414Z 27007KT 15/07 A2983 RMK A01 T01470065  RH  058%=      5-min Rain = 0
KWT1 090415Z 26007KT 15/07 A2983 RMK A01 T01470065  RH  058%=      5-min Rain = 0
KWT1 090416Z 27007KT 15/07 A2983 RMK A01 T01470065  RH  058%=      5-min Rain = 0
KWT1 090417Z 27007KT 15/07 A2983 RMK A01 T01460065  RH  058%=      5-min Rain = 0
KWT1 090418Z 27007KT 15/07 A2983 RMK A01 T01460065  RH  058%=      5-min Rain = 0
KWT1 090419Z 28007KT 15/06 A2983 RMK A01 T01450064  RH  058%=      5-min Rain = 0
KWT1 090420Z 28007KT 15/06 A2983 RMK A01 T01450064  RH  058%=      5-min Rain = 0
KWT1 090421Z 28007KT 14/06 A2983 RMK A01 T01440064  RH  058%=      5-min Rain = 0
KWT1 090422Z 27007KT 14/06 A2983 RMK A01 T01440064  RH  059%=      5-min Rain = 0
KWT1 090423Z 27007KT 14/06 A2983 RMK A01 T01440064  RH  058%=      5-min Rain = 0
KWT1 090424Z 27007KT 14/06 A2983 RMK A01 T01440064  RH  058%=      5-min Rain = 0
KWT1 090425Z 27007KT 14/06 A2983 RMK A01 T01440064  RH  059%=      5-min Rain = 0
KWT1 090426Z 27008KT 14/06 A2983 RMK A01 T01440064  RH  059%=      5-min Rain = 0
KWT1 090427Z 27007KT 14/06 A2984 RMK A01 T01440064  RH  059%=      5-min Rain = 0
KWT1 090428Z 27007KT 14/06 A2983 RMK A01 T01440064  RH  059%=      5-min Rain = 0
KWT1 090429Z 27008KT 14/06 A2983 RMK A01 T01440064  RH  059%=      5-min Rain = 0
KWT1 090430Z 27007KT 15/06 A2983 RMK A01 T01450064  RH  058%=      5-min Rain = 0
KWT1 090431Z 27008KT 15/06 A2983 RMK A01 T01460064  RH  058%=      5-min Rain = 0
KWT1 090432Z 26007KT 15/07 A2983 RMK A01 T01480065  RH  058%=      5-min Rain = 0
KWT1 090433Z 26008KT 15/07 A2983 RMK A01 T01490065  RH  057%=      5-min Rain = 0
KWT1 090434Z 26008KT 15/07 A2983 RMK A01 T01500065  RH  057%=      5-min Rain = 0
KWT1 090435Z 26008KT 15/07 A2983 RMK A01 T01500065  RH  057%=      5-min Rain = 0
KWT1 090436Z 26008KT 15/06 A2983 RMK A01 T01500064  RH  057%=      5-min Rain = 0
KWT1 090437Z 26008KT 15/06 A2983 RMK A01 T01500064  RH  057%=      5-min Rain = 0
KWT1 090438Z 26008KT 15/07 A2983 RMK A01 T01500065  RH  057%=      5-min Rain = 0
KWT1 090439Z 26009KT 15/07 A2983 RMK A01 T01510065  RH  056%=      5-min Rain = 0
KWT1 090440Z 26009KT 15/07 A2983 RMK A01 T01520065  RH  056%=      5-min Rain = 0
KWT1 090441Z 26009KT 15/07 A2983 RMK A01 T01530065  RH  056%=      5-min Rain = 0
KWT1 090442Z 26009KT 15/07 A2984 RMK A01 T01540065  RH  055%=      5-min Rain = 0
KWT1 090443Z 27009KT 16/07 A2984 RMK A01 T01550066  RH  055%=      5-min Rain = 0
KWT1 090444Z 27009KT 15/07 A2984 RMK A01 T01540065  RH  055%=      5-min Rain = 0
KWT1 090445Z 27009KT 16/07 A2984 RMK A01 T01550065  RH  055%=      5-min Rain = 0
KWT1 090446Z 27008KT 16/07 A2984 RMK A01 T01560065  RH  055%=      5-min Rain = 0
KWT1 090447Z 26009KT 16/07 A2984 RMK A01 T01550065  RH  055%=      5-min Rain = 0
KWT1 090448Z 26008KT 15/07 A2984 RMK A01 T01540065  RH  055%=      5-min Rain = 0
KWT1 090449Z 26010KT 15/07 A2984 RMK A01 T01540065  RH  055%=      5-min Rain = 0
KWT1 090450Z 26009KT 15/07 A2984 RMK A01 T01540065  RH  055%=      5-min Rain = 0
KWT1 090451Z 26009KT 15/07 A2984 RMK A01 T01540065  RH  055%=      5-min Rain = 0
KWT1 090452Z 26009KT 15/06 A2984 RMK A01 T01530064  RH  055%=      5-min Rain = 0
KWT1 090453Z 26008KT 15/06 A2984 RMK A01 T01520064  RH  056%=      5-min Rain = 0
KWT1 090454Z 26009KT 15/07 A2984 RMK A01 T01520065  RH  056%=      5-min Rain = 0
KWT1 090455Z 26009KT 15/06 A2984 RMK A01 T01520064  RH  056%=      5-min Rain = 0
KWT1 090456Z 26008KT 15/06 A2984 RMK A01 T01520064  RH  056%=      5-min Rain = 0
KWT1 090457Z 26009KT 15/06 A2984 RMK A01 T01510064  RH  056%=      5-min Rain = 0
KWT1 090458Z 25009KT 15/06 A2984 RMK A01 T01520064  RH  056%=      5-min Rain = 0
KWT1 090459Z 25008KT 15/06 A2984 RMK A01 T01510064  RH  056%=      5-min Rain = 0
KWT1 090500Z 25009KT 15/06 A2984 RMK A01 T01510064  RH  056%=      5-min Rain = 0
KWT1 090501Z 25009KT 15/06 A2984 RMK A01 T01500064  RH  056%=      5-min Rain = 0
KWT1 090502Z 25008KT 15/06 A2984 RMK A01 T01510064  RH  056%=      5-min Rain = 0
KWT1 090503Z 25008KT 15/06 A2984 RMK A01 T01500063  RH  056%=      5-min Rain = 0
KWT1 090504Z 25008KT 15/06 A2984 RMK A01 T01500063  RH  056%=      5-min Rain = 0
KWT1 090505Z 25008KT 15/06 A2983 RMK A01 T01500063  RH  056%=      5-min Rain = 0
KWT1 090506Z 25008KT 15/06 A2983 RMK A01 T01500063  RH  056%=      5-min Rain = 0
KWT1 090507Z 25008KT 15/06 A2983 RMK A01 T01490063  RH  056%=      5-min Rain = 0
KWT1 090508Z 25008KT 15/06 A2983 RMK A01 T01480063  RH  057%=      5-min Rain = 0
KWT1 090509Z 25008KT 15/06 A2983 RMK A01 T01490064  RH  057%=      5-min Rain = 0
KWT1 090510Z 25007KT 15/06 A2983 RMK A01 T01480064  RH  057%=      5-min Rain = 0
KWT1 090511Z 25008KT 15/06 A2983 RMK A01 T01480064  RH  057%=      5-min Rain = 0
KWT1 090512Z 25007KT 15/06 A2983 RMK A01 T01470063  RH  057%=      5-min Rain = 0
KWT1 090513Z 25008KT 15/06 A2983 RMK A01 T01460063  RH  057%=      5-min Rain = 0
KWT1 090514Z 25008KT 15/06 A2983 RMK A01 T01460063  RH  058%=      5-min Rain = 0
KWT1 090515Z 26007KT 15/06 A2983 RMK A01 T01450063  RH  058%=      5-min Rain = 0
KWT1 090516Z 26008KT 15/06 A2983 RMK A01 T01450063  RH  058%=      5-min Rain = 0
KWT1 090517Z 25008KT 15/06 A2983 RMK A01 T01450063  RH  058%=      5-min Rain = 0
KWT1 090518Z 25008KT 14/06 A2983 RMK A01 T01440063  RH  058%=      5-min Rain = 0
KWT1 090519Z 25008KT 14/06 A2983 RMK A01 T01440063  RH  058%=      5-min Rain = 0
KWT1 090520Z 25008KT 14/06 A2983 RMK A01 T01440063  RH  058%=      5-min Rain = 0
KWT1 090521Z 25008KT 14/06 A2983 RMK A01 T01430063  RH  058%=      5-min Rain = 0
KWT1 090522Z 25008KT 14/06 A2983 RMK A01 T01430063  RH  058%=      5-min Rain = 0
KWT1 090523Z 26008KT 14/06 A2983 RMK A01 T01430063  RH  059%=      5-min Rain = 0
KWT1 090524Z 25008KT 14/06 A2983 RMK A01 T01430063  RH  058%=      5-min Rain = 0
KWT1 090525Z 25008KT 14/06 A2982 RMK A01 T01430063  RH  058%=      5-min Rain = 0
KWT1 090526Z 25008KT 14/06 A2982 RMK A01 T01430062  RH  059%=      5-min Rain = 0
KWT1 090527Z 25008KT 14/06 A2982 RMK A01 T01420062  RH  059%=      5-min Rain = 0
KWT1 090528Z 25008KT 14/06 A2982 RMK A01 T01420062  RH  059%=      5-min Rain = 0
KWT1 090529Z 25008KT 14/06 A2982 RMK A01 T01410062  RH  059%=      5-min Rain = 0
KWT1 090530Z 25008KT 14/06 A2982 RMK A01 T01410062  RH  059%=      5-min Rain = 0
KWT1 090531Z 25008KT 14/06 A2982 RMK A01 T01400062  RH  059%=      5-min Rain = 0
KWT1 090532Z 25008KT 14/06 A2983 RMK A01 T01400062  RH  059%=      5-min Rain = 0
KWT1 090533Z 25007KT 14/06 A2983 RMK A01 T01400062  RH  059%=      5-min Rain = 0
KWT1 090534Z 25008KT 14/06 A2983 RMK A01 T01390062  RH  060%=      5-min Rain = 0
KWT1 090535Z 25008KT 14/06 A2983 RMK A01 T01390062  RH  060%=      5-min Rain = 0
KWT1 090536Z 24009KT 14/06 A2983 RMK A01 T01380062  RH  060%=      5-min Rain = 0
KWT1 090537Z 24009KT 14/06 A2983 RMK A01 T01380062  RH  060%=      5-min Rain = 0
KWT1 090538Z 24009KT 14/06 A2983 RMK A01 T01380062  RH  060%=      5-min Rain = 0
KWT1 090539Z 24009KT 14/06 A2983 RMK A01 T01380062  RH  060%=      5-min Rain = 0
KWT1 090540Z 24009KT 14/06 A2983 RMK A01 T01380062  RH  060%=      5-min Rain = 0
KWT1 090541Z 24009KT 14/06 A2983 RMK A01 T01370062  RH  060%=      5-min Rain = 0
KWT1 090542Z 24009KT 14/06 A2983 RMK A01 T01360062  RH  061%=      5-min Rain = 0
KWT1 090543Z 24009KT 14/06 A2983 RMK A01 T01360062  RH  061%=      5-min Rain = 0
KWT1 090544Z 24009KT 14/06 A2983 RMK A01 T01360062  RH  061%=      5-min Rain = 0
KWT1 090545Z 24009KT 14/06 A2983 RMK A01 T01370062  RH  061%=      5-min Rain = 0
KWT1 090546Z 24009KT 14/06 A2983 RMK A01 T01380062  RH  060%=      5-min Rain = 0
KWT1 090547Z 24009KT 14/06 A2983 RMK A01 T01380062  RH  060%=      5-min Rain = 0
KWT1 090548Z 24009KT 14/06 A2984 RMK A01 T01390062  RH  060%=      5-min Rain = 0
KWT1 090549Z 24009KT 14/06 A2984 RMK A01 T01390062  RH  060%=      5-min Rain = 0
KWT1 090550Z 25009KT 14/06 A2984 RMK A01 T01400063  RH  060%=      5-min Rain = 0
KWT1 090551Z 25009KT 14/06 A2984 RMK A01 T01400062  RH  059%=      5-min Rain = 0
KWT1 090552Z 25009KT 14/06 A2984 RMK A01 T01420062  RH  059%=      5-min Rain = 0
KWT1 090553Z 25009KT 14/06 A2984 RMK A01 T01420062  RH  058%=      5-min Rain = 0
KWT1 090554Z 25009KT 14/06 A2984 RMK A01 T01430062  RH  058%=      5-min Rain = 0
KWT1 090555Z 25009KT 14/06 A2984 RMK A01 T01440062  RH  058%=      5-min Rain = 0
KWT1 090556Z 25009KT 15/06 A2984 RMK A01 T01450062  RH  057%=      5-min Rain = 0
KWT1 090557Z 26009KT 15/06 A2984 RMK A01 T01460062  RH  057%=      5-min Rain = 0
KWT1 090558Z 25010KT 15/06 A2984 RMK A01 T01460062  RH  057%=      5-min Rain = 0
KWT1 090559Z 26009KT 15/06 A2984 RMK A01 T01470061  RH  056%=      5-min Rain = 0

Page generated in 0.0767 seconds.